GEFSSE_prec_meanprecacc_042.txt.gz
Total_Precipitation_Accumulation
0.00 0.01 0.04 0.03 0.01 0.01 0.02 0.03 0.05 0.05 0.06 0.08 0.10 0.10 0.07 0.04 0.03 0.03 0.03 0.03 0.03 0.03 0.03 0.03 0.05 0.05 0.06 0.06 0.04 0.01 0.00 0.00 0.01 0.01 0.01 0.01 0.00 0.00 0.00 0.00 0.01 0.00 0.01
0.00 0.00 0.03 0.02 0.01 0.01 0.02 0.03 0.04 0.03 0.04 0.05 0.08 0.09 0.06 0.04 0.03 0.02 0.04 0.06 0.05 0.03 0.04 0.04 0.04 0.04 0.05 0.05 0.03 0.01 0.00 0.00 0.00 0.01 0.01 0.00 0.00 0.00 0.00 0.00 0.01 0.00 0.00
0.00 0.00 0.02 0.02 0.01 0.01 0.01 0.03 0.05 0.04 0.03 0.03 0.04 0.05 0.03 0.03 0.03 0.02 0.03 0.09 0.11 0.09 0.06 0.03 0.02 0.02 0.02 0.02 0.02 0.01 0.01 0.00 0.01 0.01 0.01 0.01 0.01 0.01 0.01 0.01 0.00 0.00 0.00
0.00 0.00 0.01 0.02 0.01 0.01 0.01 0.01 0.03 0.04 0.04 0.05 0.07 0.06 0.05 0.04 0.03 0.03 0.03 0.06 0.09 0.07 0.07 0.03 0.02 0.02 0.01 0.01 0.01 0.01 0.02 0.01 0.01 0.01 0.01 0.07 0.08 0.03 0.03 0.03 0.03 0.01 0.00
0.00 0.00 0.02 0.02 0.01 0.01 0.00 0.01 0.02 0.03 0.05 0.08 0.08 0.07 0.07 0.06 0.06 0.05 0.05 0.06 0.06 0.04 0.04 0.04 0.03 0.02 0.01 0.01 0.01 0.02 0.02 0.01 0.01 0.01 0.03 0.09 0.10 0.05 0.03 0.05 0.06 0.05 0.04
0.00 0.00 0.02 0.02 0.01 0.01 0.01 0.01 0.01 0.03 0.04 0.05 0.05 0.05 0.05 0.05 0.07 0.06 0.06 0.07 0.09 0.08 0.05 0.06 0.06 0.07 0.05 0.03 0.02 0.02 0.02 0.02 0.02 0.02 0.03 0.03 0.09 0.08 0.05 0.09 0.11 0.13 0.12
0.00 0.01 0.02 0.02 0.01 0.01 0.01 0.01 0.01 0.02 0.03 0.03 0.03 0.03 0.03 0.03 0.04 0.05 0.05 0.06 0.06 0.09 0.08 0.09 0.09 0.07 0.08 0.08 0.05 0.03 0.03 0.04 0.03 0.01 0.02 0.03 0.07 0.06 0.08 0.17 0.24 0.23 0.20
0.00 0.01 0.02 0.02 0.01 0.01 0.01 0.01 0.01 0.01 0.02 0.02 0.02 0.02 0.01 0.01 0.02 0.03 0.04 0.03 0.02 0.02 0.04 0.07 0.11 0.10 0.08 0.12 0.10 0.07 0.06 0.07 0.06 0.03 0.02 0.05 0.08 0.09 0.15 0.26 0.34 0.31 0.26
0.00 0.00 0.01 0.01 0.01 0.01 0.01 0.01 0.01 0.01 0.01 0.01 0.01 0.01 0.01 0.01 0.01 0.01 0.01 0.01 0.00 0.00 0.02 0.03 0.03 0.05 0.05 0.09 0.13 0.13 0.10 0.09 0.10 0.15 0.08 0.15 0.18 0.19 0.30 0.40 0.45 0.43 0.39
0.01 0.00 0.01 0.01 0.01 0.01 0.01 0.01 0.01 0.01 0.01 0.01 0.01 0.01 0.00 0.00 0.00 0.00 0.01 0.00 0.00 0.00 0.01 0.01 0.01 0.02 0.04 0.05 0.09 0.17 0.20 0.14 0.06 0.08 0.19 0.16 0.14 0.30 0.50 0.58 0.64 0.63 0.59
0.01 0.01 0.01 0.00 0.01 0.01 0.01 0.00 0.00 0.01 0.01 0.01 0.01 0.00 0.00 0.00 0.01 0.03 0.01 0.01 0.02 0.04 0.06 0.06 0.05 0.05 0.05 0.05 0.10 0.22 0.25 0.12 0.05 0.07 0.14 0.11 0.14 0.37 0.63 0.74 0.77 0.78 0.76
0.01 0.01 0.01 0.00 0.00 0.01 0.01 0.00 0.00 0.00 0.00 0.00 0.02 0.01 0.01 0.01 0.01 0.02 0.02 0.04 0.13 0.19 0.22 0.28 0.29 0.19 0.15 0.19 0.38 0.35 0.13 0.07 0.08 0.10 0.14 0.09 0.18 0.41 0.65 0.86 0.93 0.89 0.86
0.00 0.00 0.00 0.00 0.01 0.01 0.01 0.01 0.00 0.00 0.01 0.00 0.01 0.01 0.02 0.01 0.00 0.00 0.01 0.04 0.11 0.15 0.21 0.33 0.34 0.24 0.24 0.31 0.30 0.28 0.11 0.06 0.07 0.07 0.15 0.15 0.21 0.45 0.72 0.97 1.13 1.06 0.97
0.00 0.00 0.00 0.00 0.01 0.01 0.00 0.00 0.00 0.00 0.00 0.00 0.00 0.00 0.01 0.01 0.01 0.03 0.06 0.08 0.13 0.16 0.25 0.28 0.32 0.19 0.16 0.15 0.11 0.14 0.15 0.20 0.15 0.21 0.33 0.26 0.20 0.32 0.65 0.93 1.16 1.21 1.01
0.00 0.00 0.00 0.00 0.01 0.01 0.01 0.00 0.00 0.00 0.00 0.00 0.00 0.00 0.00 0.01 0.05 0.11 0.13 0.16 0.13 0.15 0.22 0.28 0.20 0.19 0.15 0.11 0.08 0.08 0.09 0.09 0.12 0.26 0.31 0.29 0.28 0.39 0.70 1.00 1.17 1.19 1.04
0.00 0.00 0.00 0.00 0.00 0.01 0.01 0.00 0.00 0.00 0.00 0.00 0.00 0.00 0.00 0.03 0.12 0.17 0.16 0.20 0.17 0.15 0.24 0.28 0.22 0.24 0.15 0.11 0.07 0.04 0.05 0.06 0.06 0.10 0.13 0.19 0.32 0.46 0.57 0.79 1.02 1.11 1.04
0.00 0.00 0.00 0.00 0.00 0.01 0.01 0.00 0.00 0.00 0.00 0.00 0.00 0.00 0.01 0.05 0.16 0.19 0.20 0.20 0.22 0.22 0.31 0.31 0.26 0.26 0.17 0.11 0.08 0.06 0.06 0.06 0.05 0.08 0.13 0.20 0.26 0.33 0.42 0.53 0.76 0.92 0.92
0.03 0.01 0.01 0.01 0.01 0.02 0.02 0.04 0.03 0.02 0.02 0.01 0.01 0.02 0.04 0.07 0.16 0.26 0.23 0.22 0.28 0.28 0.31 0.37 0.31 0.28 0.28 0.19 0.12 0.06 0.04 0.05 0.05 0.08 0.15 0.22 0.21 0.15 0.26 0.42 0.52 0.61 0.73
0.11 0.06 0.05 0.04 0.04 0.09 0.15 0.19 0.15 0.13 0.10 0.08 0.08 0.10 0.13 0.15 0.20 0.37 0.36 0.37 0.30 0.38 0.35 0.28 0.29 0.35 0.34 0.28 0.11 0.10 0.04 0.05 0.06 0.07 0.10 0.14 0.13 0.14 0.15 0.25 0.45 0.48 0.63
0.29 0.23 0.17 0.15 0.21 0.39 0.54 0.52 0.47 0.37 0.28 0.24 0.21 0.23 0.28 0.33 0.34 0.48 0.48 0.52 0.45 0.53 0.53 0.45 0.46 0.42 0.35 0.29 0.09 0.08 0.04 0.03 0.04 0.07 0.08 0.10 0.12 0.12 0.11 0.16 0.21 0.26 0.35
0.50 0.49 0.43 0.46 0.67 0.86 0.81 0.82 0.86 0.80 0.69 0.53 0.43 0.41 0.45 0.46 0.50 0.64 0.58 0.76 0.74 0.72 0.77 0.64 0.60 0.51 0.44 0.40 0.26 0.16 0.04 0.01 0.03 0.06 0.10 0.11 0.10 0.14 0.17 0.26 0.33 0.39 0.37
0.79 0.88 0.99 1.26 1.50 1.38 1.41 1.50 1.42 1.30 1.01 0.83 0.70 0.61 0.60 0.63 0.66 0.71 0.88 0.94 0.91 0.88 0.92 0.84 0.68 0.51 0.44 0.48 0.43 0.29 0.16 0.12 0.11 0.11 0.16 0.15 0.15 0.15 0.17 0.26 0.39 0.48 0.41
1.31 1.49 1.70 1.89 1.90 1.78 1.84 1.85 1.56 1.39 1.18 1.06 0.99 0.84 0.78 0.82 0.85 0.89 0.95 1.03 0.95 0.88 0.89 0.91 0.75 0.60 0.57 0.57 0.62 0.52 0.38 0.31 0.17 0.07 0.08 0.12 0.19 0.21 0.18 0.17 0.18 0.16 0.15
1.73 2.06 2.31 2.30 2.22 2.09 2.10 2.01 1.86 1.66 1.44 1.30 1.21 1.01 0.92 0.91 0.94 0.97 0.97 1.01 0.99 0.91 0.83 0.78 0.75 0.77 0.67 0.58 0.65 0.69 0.66 0.52 0.37 0.17 0.08 0.08 0.14 0.19 0.22 0.18 0.12 0.06 0.06
1.68 1.98 2.21 2.36 2.36 2.21 2.11 1.99 1.90 1.70 1.49 1.33 1.16 1.06 1.05 1.09 1.03 1.00 0.99 1.07 1.08 1.01 0.90 0.87 0.85 0.77 0.65 0.56 0.56 0.57 0.62 0.65 0.58 0.44 0.26 0.18 0.13 0.10 0.12 0.11 0.09 0.07 0.08
1.49 1.75 1.93 2.04 2.02 1.95 1.86 1.79 1.78 1.72 1.67 1.50 1.30 1.25 1.27 1.20 1.07 1.01 0.99 1.02 1.03 0.93 0.82 0.75 0.74 0.70 0.60 0.56 0.52 0.51 0.53 0.54 0.63 0.63 0.43 0.33 0.23 0.08 0.07 0.07 0.08 0.10 0.15

GEFSSE_prec_meanprecacc_048.txt.gz
Total_Precipitation_Accumulation
0.00 0.01 0.04 0.03 0.01 0.01 0.02 0.03 0.05 0.05 0.06 0.08 0.10 0.10 0.07 0.04 0.03 0.03 0.03 0.03 0.03 0.03 0.03 0.03 0.05 0.05 0.06 0.06 0.04 0.01 0.00 0.00 0.01 0.01 0.01 0.01 0.00 0.00 0.00 0.00 0.03 0.01 0.01
0.00 0.00 0.03 0.02 0.01 0.01 0.02 0.03 0.04 0.04 0.04 0.05 0.08 0.09 0.06 0.04 0.03 0.02 0.04 0.06 0.05 0.03 0.04 0.04 0.04 0.04 0.05 0.05 0.03 0.01 0.00 0.00 0.00 0.01 0.01 0.00 0.00 0.00 0.00 0.00 0.02 0.01 0.00
0.00 0.00 0.02 0.02 0.02 0.01 0.01 0.03 0.05 0.04 0.03 0.03 0.04 0.05 0.03 0.03 0.03 0.02 0.03 0.09 0.11 0.09 0.06 0.03 0.02 0.02 0.02 0.02 0.02 0.01 0.01 0.00 0.01 0.01 0.01 0.02 0.01 0.01 0.01 0.01 0.00 0.00 0.00
0.00 0.00 0.01 0.02 0.01 0.01 0.01 0.01 0.03 0.04 0.04 0.05 0.07 0.06 0.05 0.04 0.04 0.03 0.03 0.06 0.09 0.07 0.07 0.03 0.02 0.02 0.01 0.01 0.01 0.01 0.02 0.01 0.01 0.01 0.02 0.10 0.08 0.03 0.03 0.03 0.03 0.01 0.00
0.00 0.00 0.02 0.02 0.01 0.01 0.01 0.01 0.02 0.04 0.05 0.08 0.08 0.07 0.07 0.07 0.06 0.05 0.05 0.06 0.06 0.04 0.04 0.04 0.03 0.02 0.01 0.01 0.01 0.02 0.02 0.01 0.01 0.01 0.03 0.09 0.11 0.06 0.03 0.05 0.06 0.05 0.04
0.00 0.00 0.02 0.02 0.01 0.01 0.01 0.01 0.02 0.03 0.04 0.05 0.06 0.05 0.05 0.05 0.07 0.07 0.06 0.08 0.09 0.08 0.05 0.06 0.06 0.07 0.05 0.03 0.02 0.02 0.02 0.02 0.02 0.02 0.03 0.03 0.11 0.11 0.05 0.10 0.12 0.14 0.13
0.00 0.01 0.02 0.02 0.01 0.01 0.01 0.01 0.01 0.02 0.03 0.04 0.03 0.03 0.03 0.03 0.04 0.05 0.05 0.06 0.07 0.09 0.09 0.09 0.09 0.07 0.08 0.08 0.05 0.03 0.03 0.04 0.03 0.01 0.02 0.03 0.07 0.07 0.08 0.19 0.27 0.27 0.24
0.00 0.01 0.02 0.02 0.01 0.01 0.01 0.01 0.02 0.02 0.02 0.02 0.02 0.02 0.01 0.02 0.02 0.03 0.04 0.03 0.02 0.02 0.04 0.07 0.11 0.10 0.08 0.12 0.10 0.07 0.06 0.07 0.06 0.03 0.03 0.05 0.08 0.09 0.15 0.27 0.35 0.33 0.30
0.00 0.00 0.01 0.01 0.01 0.02 0.01 0.01 0.01 0.01 0.01 0.01 0.01 0.01 0.01 0.01 0.01 0.01 0.01 0.01 0.00 0.01 0.02 0.03 0.04 0.05 0.05 0.09 0.13 0.13 0.10 0.09 0.10 0.15 0.08 0.15 0.19 0.20 0.31 0.41 0.45 0.44 0.42
0.01 0.00 0.01 0.01 0.01 0.01 0.01 0.01 0.01 0.01 0.01 0.01 0.01 0.01 0.01 0.00 0.00 0.00 0.01 0.01 0.00 0.00 0.01 0.01 0.01 0.02 0.04 0.05 0.09 0.17 0.20 0.14 0.06 0.09 0.20 0.17 0.15 0.30 0.50 0.58 0.65 0.64 0.61
0.01 0.01 0.01 0.00 0.01 0.01 0.01 0.00 0.00 0.01 0.01 0.01 0.01 0.00 0.00 0.00 0.01 0.03 0.01 0.01 0.02 0.04 0.06 0.06 0.06 0.05 0.05 0.06 0.11 0.23 0.25 0.12 0.06 0.08 0.15 0.12 0.15 0.38 0.64 0.75 0.77 0.79 0.77
0.01 0.01 0.01 0.00 0.00 0.01 0.01 0.00 0.00 0.00 0.01 0.01 0.03 0.03 0.02 0.02 0.03 0.02 0.02 0.05 0.13 0.19 0.22 0.28 0.29 0.20 0.16 0.23 0.52 0.47 0.15 0.08 0.09 0.10 0.14 0.09 0.19 0.43 0.66 0.87 0.94 0.90 0.87
0.00 0.00 0.00 0.00 0.01 0.01 0.01 0.01 0.00 0.00 0.01 0.01 0.02 0.05 0.07 0.04 0.02 0.00 0.01 0.05 0.11 0.16 0.23 0.37 0.38 0.27 0.31 0.41 0.41 0.39 0.14 0.07 0.09 0.08 0.16 0.16 0.21 0.46 0.73 0.98 1.14 1.07 0.98
0.00 0.00 0.00 0.00 0.01 0.01 0.00 0.00 0.00 0.00 0.00 0.01 0.01 0.02 0.04 0.04 0.03 0.03 0.06 0.09 0.15 0.20 0.28 0.31 0.41 0.25 0.21 0.20 0.15 0.17 0.16 0.21 0.16 0.22 0.35 0.27 0.20 0.32 0.66 0.93 1.17 1.22 1.02
0.00 0.00 0.00 0.00 0.01 0.01 0.01 0.00 0.00 0.00 0.00 0.00 0.01 0.02 0.03 0.04 0.07 0.12 0.14 0.17 0.14 0.16 0.24 0.32 0.22 0.23 0.19 0.13 0.09 0.10 0.10 0.11 0.13 0.27 0.32 0.30 0.28 0.39 0.70 1.01 1.18 1.20 1.04
0.00 0.00 0.00 0.00 0.00 0.01 0.01 0.00 0.00 0.00 0.00 0.00 0.00 0.00 0.01 0.04 0.14 0.19 0.18 0.23 0.17 0.16 0.26 0.33 0.25 0.32 0.19 0.13 0.08 0.05 0.05 0.06 0.06 0.10 0.14 0.20 0.32 0.46 0.58 0.80 1.03 1.12 1.05
0.00 0.00 0.00 0.00 0.00 0.01 0.01 0.00 0.00 0.00 0.00 0.00 0.00 0.00 0.01 0.05 0.17 0.21 0.23 0.23 0.25 0.25 0.35 0.34 0.30 0.31 0.22 0.15 0.11 0.08 0.07 0.06 0.05 0.09 0.14 0.21 0.26 0.34 0.42 0.55 0.78 0.94 0.93
0.03 0.01 0.01 0.01 0.01 0.02 0.03 0.04 0.03 0.02 0.02 0.01 0.01 0.02 0.04 0.08 0.18 0.28 0.25 0.25 0.32 0.32 0.35 0.44 0.37 0.36 0.39 0.26 0.17 0.08 0.05 0.06 0.06 0.08 0.15 0.22 0.22 0.15 0.27 0.44 0.54 0.63 0.74
0.11 0.06 0.05 0.04 0.05 0.10 0.17 0.20 0.16 0.13 0.10 0.09 0.09 0.12 0.16 0.17 0.23 0.41 0.40 0.43 0.35 0.44 0.42 0.34 0.40 0.48 0.48 0.42 0.19 0.14 0.06 0.07 0.08 0.08 0.10 0.14 0.14 0.14 0.16 0.27 0.46 0.49 0.64
0.29 0.24 0.18 0.18 0.26 0.46 0.63 0.60 0.52 0.40 0.30 0.25 0.23 0.24 0.31 0.37 0.40 0.56 0.54 0.60 0.55 0.66 0.67 0.59 0.63 0.59 0.51 0.46 0.18 0.15 0.10 0.07 0.08 0.09 0.11 0.12 0.13 0.12 0.11 0.16 0.23 0.28 0.37
0.50 0.50 0.49 0.60 0.87 1.06 1.02 0.99 1.01 0.93 0.81 0.61 0.48 0.46 0.52 0.55 0.63 0.79 0.71 0.95 0.94 0.92 0.99 0.85 0.83 0.73 0.66 0.63 0.46 0.32 0.14 0.07 0.07 0.09 0.12 0.13 0.11 0.14 0.17 0.26 0.34 0.42 0.41
0.80 0.93 1.11 1.45 1.74 1.63 1.67 1.78 1.70 1.59 1.22 0.97 0.83 0.74 0.72 0.79 0.84 0.90 1.11 1.18 1.16 1.16 1.19 1.10 0.98 0.80 0.73 0.79 0.74 0.58 0.38 0.26 0.20 0.17 0.21 0.19 0.17 0.17 0.18 0.27 0.39 0.50 0.43
1.33 1.54 1.78 2.04 2.11 2.03 2.12 2.14 1.82 1.67 1.36 1.25 1.17 1.03 0.98 1.06 1.10 1.14 1.23 1.30 1.23 1.17 1.16 1.21 1.06 0.93 0.90 0.91 0.95 0.83 0.66 0.54 0.34 0.19 0.21 0.24 0.26 0.25 0.19 0.17 0.18 0.16 0.16
1.75 2.09 2.36 2.38 2.34 2.27 2.32 2.24 2.08 1.88 1.62 1.54 1.52 1.32 1.19 1.16 1.17 1.21 1.22 1.28 1.26 1.20 1.11 1.07 1.05 1.08 1.01 0.93 1.01 1.03 0.98 0.84 0.64 0.35 0.19 0.17 0.22 0.22 0.24 0.19 0.13 0.07 0.08
1.68 1.99 2.23 2.40 2.42 2.32 2.25 2.16 2.10 1.91 1.72 1.61 1.49 1.37 1.33 1.36 1.26 1.20 1.20 1.28 1.29 1.23 1.14 1.15 1.16 1.12 1.02 0.92 0.92 0.93 0.98 0.98 0.86 0.65 0.41 0.29 0.22 0.14 0.16 0.14 0.11 0.08 0.10
1.50 1.75 1.93 2.05 2.06 2.01 1.94 1.90 1.90 1.86 1.84 1.69 1.52 1.51 1.53 1.46 1.28 1.19 1.18 1.23 1.23 1.15 1.07 1.04 1.05 1.05 0.97 0.91 0.87 0.86 0.86 0.85 0.91 0.86 0.61 0.48 0.35 0.13 0.09 0.09 0.10 0.12 0.16

GEFSSE_prec_meanprecacc_054.txt.gz
Total_Precipitation_Accumulation
0.00 0.01 0.04 0.03 0.01 0.01 0.02 0.03 0.05 0.05 0.06 0.08 0.10 0.10 0.07 0.04 0.03 0.03 0.03 0.03 0.03 0.03 0.03 0.03 0.05 0.05 0.06 0.06 0.04 0.01 0.00 0.00 0.01 0.01 0.01 0.01 0.00 0.00 0.01 0.00 0.03 0.01 0.01
0.00 0.00 0.03 0.02 0.01 0.01 0.02 0.03 0.04 0.04 0.04 0.05 0.08 0.09 0.06 0.04 0.03 0.02 0.04 0.06 0.05 0.03 0.04 0.04 0.04 0.04 0.05 0.05 0.03 0.01 0.00 0.00 0.00 0.01 0.01 0.00 0.00 0.00 0.01 0.00 0.02 0.01 0.00
0.00 0.00 0.02 0.02 0.02 0.01 0.01 0.03 0.05 0.04 0.03 0.03 0.04 0.05 0.03 0.03 0.03 0.02 0.03 0.09 0.11 0.09 0.06 0.03 0.02 0.02 0.02 0.02 0.02 0.01 0.01 0.00 0.01 0.01 0.01 0.02 0.01 0.01 0.01 0.01 0.00 0.00 0.00
0.00 0.00 0.01 0.02 0.01 0.01 0.01 0.01 0.03 0.04 0.04 0.06 0.07 0.06 0.05 0.04 0.04 0.03 0.03 0.06 0.09 0.07 0.07 0.03 0.02 0.02 0.01 0.01 0.01 0.01 0.02 0.01 0.01 0.01 0.03 0.11 0.09 0.03 0.03 0.03 0.03 0.01 0.00
0.00 0.00 0.02 0.02 0.01 0.01 0.01 0.01 0.03 0.04 0.05 0.08 0.08 0.07 0.07 0.07 0.06 0.05 0.05 0.06 0.06 0.04 0.04 0.04 0.03 0.02 0.01 0.01 0.01 0.02 0.02 0.01 0.01 0.01 0.03 0.10 0.12 0.07 0.04 0.06 0.06 0.05 0.04
0.00 0.00 0.02 0.02 0.01 0.01 0.01 0.01 0.02 0.03 0.04 0.06 0.06 0.05 0.06 0.05 0.07 0.07 0.06 0.08 0.09 0.08 0.05 0.06 0.06 0.07 0.05 0.03 0.02 0.02 0.02 0.02 0.02 0.02 0.03 0.04 0.12 0.12 0.08 0.12 0.13 0.14 0.13
0.00 0.01 0.02 0.02 0.01 0.01 0.01 0.01 0.02 0.02 0.03 0.04 0.03 0.03 0.03 0.03 0.04 0.05 0.05 0.06 0.07 0.09 0.09 0.09 0.09 0.07 0.08 0.08 0.05 0.03 0.03 0.04 0.03 0.01 0.02 0.03 0.09 0.09 0.12 0.23 0.30 0.28 0.25
0.00 0.01 0.02 0.02 0.01 0.01 0.01 0.01 0.02 0.02 0.02 0.02 0.02 0.02 0.01 0.02 0.02 0.03 0.04 0.03 0.02 0.02 0.04 0.07 0.11 0.10 0.08 0.12 0.10 0.07 0.06 0.07 0.06 0.03 0.03 0.06 0.09 0.11 0.20 0.32 0.39 0.36 0.31
0.00 0.00 0.01 0.01 0.01 0.02 0.01 0.01 0.01 0.01 0.01 0.01 0.01 0.01 0.01 0.01 0.01 0.01 0.01 0.01 0.01 0.01 0.02 0.03 0.04 0.05 0.05 0.09 0.13 0.13 0.10 0.09 0.10 0.15 0.08 0.15 0.20 0.24 0.39 0.47 0.50 0.48 0.44
0.01 0.00 0.01 0.01 0.01 0.01 0.01 0.01 0.01 0.01 0.01 0.01 0.01 0.01 0.01 0.00 0.00 0.00 0.01 0.01 0.00 0.00 0.01 0.01 0.01 0.02 0.04 0.06 0.09 0.17 0.20 0.14 0.06 0.09 0.20 0.17 0.16 0.36 0.59 0.65 0.69 0.67 0.63
0.01 0.01 0.01 0.00 0.01 0.01 0.01 0.00 0.00 0.01 0.01 0.01 0.01 0.00 0.00 0.00 0.01 0.03 0.01 0.01 0.02 0.04 0.06 0.06 0.06 0.05 0.05 0.06 0.11 0.23 0.25 0.12 0.06 0.08 0.15 0.12 0.17 0.44 0.72 0.81 0.81 0.81 0.79
0.01 0.01 0.01 0.00 0.00 0.01 0.01 0.00 0.00 0.00 0.01 0.01 0.03 0.03 0.02 0.02 0.03 0.02 0.02 0.05 0.13 0.19 0.22 0.28 0.29 0.20 0.16 0.23 0.52 0.48 0.15 0.08 0.09 0.11 0.16 0.11 0.21 0.48 0.73 0.92 0.97 0.92 0.89
0.00 0.00 0.00 0.00 0.01 0.01 0.01 0.01 0.00 0.00 0.01 0.01 0.02 0.05 0.07 0.05 0.02 0.00 0.01 0.05 0.11 0.16 0.23 0.37 0.38 0.27 0.31 0.41 0.42 0.39 0.14 0.08 0.09 0.09 0.17 0.17 0.24 0.50 0.79 1.02 1.17 1.09 1.00
0.00 0.00 0.00 0.00 0.01 0.01 0.00 0.00 0.00 0.00 0.00 0.01 0.01 0.02 0.04 0.04 0.03 0.04 0.06 0.09 0.15 0.20 0.28 0.31 0.41 0.25 0.21 0.20 0.15 0.17 0.17 0.22 0.17 0.25 0.38 0.28 0.21 0.34 0.70 0.99 1.21 1.24 1.03
0.00 0.00 0.00 0.00 0.01 0.01 0.01 0.00 0.00 0.00 0.00 0.00 0.01 0.02 0.03 0.04 0.07 0.12 0.14 0.17 0.14 0.16 0.25 0.32 0.22 0.23 0.20 0.13 0.10 0.11 0.12 0.13 0.15 0.30 0.35 0.31 0.29 0.41 0.74 1.09 1.25 1.25 1.08
0.00 0.00 0.00 0.00 0.01 0.02 0.02 0.01 0.00 0.00 0.00 0.00 0.00 0.01 0.01 0.05 0.15 0.20 0.18 0.23 0.18 0.17 0.26 0.33 0.25 0.32 0.19 0.13 0.09 0.07 0.08 0.09 0.09 0.14 0.18 0.23 0.34 0.48 0.61 0.88 1.13 1.19 1.10
0.02 0.02 0.02 0.02 0.02 0.05 0.06 0.05 0.02 0.01 0.01 0.01 0.01 0.02 0.03 0.07 0.20 0.24 0.24 0.24 0.26 0.26 0.36 0.35 0.31 0.33 0.24 0.17 0.14 0.11 0.12 0.11 0.10 0.15 0.19 0.26 0.29 0.37 0.46 0.62 0.87 1.01 1.00
0.07 0.06 0.06 0.09 0.12 0.13 0.13 0.13 0.12 0.09 0.05 0.04 0.03 0.04 0.07 0.12 0.23 0.34 0.30 0.28 0.35 0.34 0.38 0.48 0.40 0.40 0.45 0.33 0.23 0.15 0.13 0.15 0.14 0.16 0.22 0.30 0.29 0.20 0.31 0.53 0.63 0.68 0.80
0.19 0.19 0.20 0.23 0.26 0.29 0.32 0.34 0.29 0.24 0.17 0.14 0.13 0.17 0.22 0.27 0.37 0.56 0.54 0.52 0.44 0.53 0.50 0.43 0.51 0.61 0.62 0.56 0.32 0.26 0.18 0.19 0.19 0.18 0.21 0.26 0.25 0.24 0.23 0.32 0.52 0.54 0.69
0.43 0.43 0.44 0.48 0.58 0.84 1.00 0.89 0.76 0.57 0.44 0.40 0.36 0.36 0.44 0.55 0.64 0.81 0.75 0.79 0.76 0.86 0.86 0.79 0.82 0.82 0.76 0.70 0.39 0.30 0.24 0.19 0.20 0.24 0.25 0.26 0.25 0.23 0.23 0.26 0.28 0.32 0.42
0.67 0.73 0.78 0.91 1.14 1.34 1.36 1.36 1.38 1.23 1.08 0.85 0.67 0.64 0.71 0.73 0.84 1.11 1.03 1.26 1.29 1.26 1.28 1.12 1.11 1.01 0.90 0.89 0.68 0.47 0.25 0.15 0.15 0.19 0.21 0.24 0.25 0.30 0.34 0.41 0.45 0.50 0.47
0.89 1.07 1.31 1.66 1.92 1.81 1.91 2.08 1.99 1.83 1.38 1.11 0.97 0.91 0.93 1.04 1.13 1.28 1.53 1.60 1.59 1.56 1.55 1.44 1.31 1.09 0.96 1.02 0.97 0.80 0.52 0.35 0.26 0.24 0.31 0.34 0.38 0.37 0.35 0.40 0.50 0.60 0.52
1.35 1.56 1.82 2.09 2.19 2.12 2.23 2.27 1.98 1.84 1.49 1.36 1.30 1.19 1.18 1.33 1.42 1.54 1.69 1.77 1.66 1.59 1.54 1.55 1.38 1.19 1.10 1.10 1.16 1.05 0.83 0.64 0.43 0.30 0.38 0.48 0.60 0.57 0.43 0.35 0.32 0.26 0.24
1.75 2.09 2.37 2.40 2.38 2.30 2.36 2.29 2.15 1.97 1.72 1.66 1.70 1.49 1.34 1.34 1.39 1.47 1.52 1.62 1.63 1.61 1.47 1.37 1.33 1.32 1.21 1.10 1.20 1.24 1.17 0.99 0.78 0.48 0.35 0.38 0.51 0.55 0.50 0.39 0.31 0.22 0.18
1.68 1.99 2.23 2.41 2.43 2.33 2.26 2.18 2.13 1.95 1.78 1.68 1.61 1.49 1.41 1.45 1.37 1.35 1.40 1.52 1.55 1.49 1.38 1.38 1.41 1.36 1.22 1.09 1.11 1.17 1.24 1.21 1.06 0.82 0.53 0.42 0.39 0.39 0.43 0.35 0.24 0.17 0.16
1.50 1.75 1.93 2.06 2.06 2.01 1.94 1.91 1.91 1.87 1.86 1.72 1.57 1.57 1.60 1.54 1.38 1.30 1.32 1.40 1.42 1.37 1.30 1.29 1.32 1.30 1.20 1.16 1.12 1.10 1.10 1.08 1.12 1.07 0.79 0.61 0.46 0.25 0.25 0.26 0.25 0.23 0.24

GEFSSE_prec_meanprecacc_060.txt.gz
Total_Precipitation_Accumulation
0.00 0.01 0.04 0.03 0.01 0.01 0.02 0.03 0.05 0.05 0.06 0.08 0.10 0.10 0.07 0.04 0.03 0.03 0.03 0.03 0.03 0.03 0.03 0.03 0.06 0.05 0.06 0.06 0.04 0.01 0.00 0.00 0.01 0.01 0.01 0.01 0.01 0.01 0.02 0.01 0.03 0.01 0.01
0.00 0.01 0.03 0.02 0.01 0.01 0.02 0.03 0.04 0.04 0.04 0.05 0.08 0.09 0.06 0.04 0.03 0.02 0.04 0.06 0.05 0.03 0.04 0.05 0.04 0.04 0.05 0.05 0.03 0.01 0.00 0.00 0.00 0.01 0.01 0.01 0.01 0.01 0.02 0.01 0.02 0.01 0.00
0.00 0.00 0.02 0.02 0.02 0.01 0.01 0.03 0.05 0.04 0.03 0.03 0.04 0.05 0.03 0.03 0.03 0.02 0.03 0.09 0.11 0.09 0.06 0.03 0.02 0.02 0.02 0.02 0.02 0.01 0.01 0.00 0.01 0.01 0.01 0.02 0.01 0.01 0.03 0.02 0.01 0.00 0.00
0.00 0.00 0.01 0.02 0.01 0.01 0.01 0.01 0.03 0.04 0.04 0.06 0.07 0.06 0.05 0.04 0.04 0.03 0.03 0.06 0.09 0.07 0.07 0.03 0.02 0.02 0.01 0.01 0.01 0.01 0.02 0.01 0.01 0.01 0.03 0.11 0.09 0.04 0.06 0.05 0.04 0.02 0.01
0.00 0.00 0.02 0.02 0.01 0.01 0.01 0.01 0.03 0.04 0.05 0.08 0.08 0.07 0.07 0.07 0.06 0.05 0.05 0.06 0.06 0.04 0.04 0.04 0.03 0.02 0.01 0.01 0.01 0.02 0.02 0.01 0.01 0.01 0.03 0.10 0.12 0.07 0.06 0.09 0.09 0.08 0.06
0.00 0.00 0.02 0.02 0.01 0.01 0.01 0.01 0.02 0.03 0.04 0.06 0.06 0.05 0.06 0.05 0.07 0.07 0.06 0.08 0.09 0.08 0.05 0.06 0.06 0.07 0.05 0.03 0.02 0.02 0.02 0.02 0.02 0.02 0.03 0.04 0.12 0.12 0.09 0.16 0.19 0.19 0.16
0.00 0.01 0.02 0.02 0.01 0.01 0.01 0.01 0.02 0.02 0.03 0.04 0.04 0.03 0.03 0.03 0.04 0.05 0.06 0.06 0.07 0.09 0.09 0.09 0.09 0.07 0.08 0.08 0.05 0.03 0.03 0.04 0.03 0.01 0.02 0.03 0.09 0.09 0.14 0.30 0.39 0.36 0.30
0.00 0.01 0.02 0.02 0.01 0.01 0.01 0.01 0.02 0.02 0.02 0.02 0.02 0.02 0.01 0.02 0.02 0.04 0.04 0.03 0.02 0.03 0.04 0.07 0.11 0.10 0.08 0.12 0.10 0.07 0.06 0.07 0.06 0.03 0.03 0.06 0.09 0.12 0.23 0.40 0.49 0.45 0.39
0.00 0.00 0.01 0.01 0.01 0.02 0.01 0.01 0.01 0.01 0.01 0.01 0.01 0.01 0.01 0.01 0.01 0.01 0.01 0.01 0.01 0.01 0.02 0.03 0.04 0.05 0.06 0.09 0.13 0.13 0.10 0.09 0.10 0.15 0.08 0.15 0.20 0.25 0.42 0.54 0.60 0.56 0.51
0.01 0.00 0.01 0.01 0.01 0.01 0.01 0.01 0.01 0.01 0.01 0.01 0.01 0.01 0.01 0.01 0.01 0.01 0.01 0.01 0.01 0.01 0.01 0.01 0.02 0.02 0.04 0.06 0.09 0.17 0.20 0.14 0.06 0.09 0.20 0.17 0.16 0.36 0.62 0.73 0.81 0.77 0.71
0.01 0.01 0.01 0.00 0.01 0.01 0.01 0.00 0.01 0.01 0.01 0.01 0.01 0.01 0.01 0.00 0.01 0.03 0.02 0.01 0.02 0.04 0.06 0.07 0.06 0.06 0.06 0.06 0.11 0.23 0.26 0.12 0.06 0.08 0.15 0.12 0.17 0.44 0.75 0.88 0.91 0.92 0.88
0.01 0.01 0.01 0.00 0.00 0.01 0.01 0.01 0.00 0.00 0.01 0.01 0.03 0.03 0.02 0.02 0.04 0.03 0.02 0.05 0.13 0.19 0.23 0.30 0.31 0.21 0.17 0.23 0.53 0.49 0.15 0.08 0.09 0.11 0.16 0.11 0.22 0.51 0.79 1.01 1.07 1.01 0.98
0.00 0.00 0.00 0.01 0.01 0.01 0.01 0.01 0.00 0.00 0.02 0.01 0.02 0.05 0.07 0.05 0.02 0.00 0.01 0.05 0.12 0.17 0.24 0.39 0.42 0.30 0.33 0.43 0.42 0.40 0.14 0.08 0.09 0.10 0.17 0.18 0.25 0.57 0.91 1.13 1.27 1.18 1.09
0.00 0.00 0.00 0.01 0.01 0.02 0.01 0.01 0.01 0.00 0.00 0.01 0.01 0.02 0.04 0.04 0.03 0.04 0.06 0.09 0.16 0.20 0.29 0.33 0.43 0.28 0.25 0.23 0.17 0.18 0.17 0.23 0.18 0.25 0.39 0.29 0.24 0.44 0.87 1.14 1.33 1.35 1.12
0.00 0.00 0.00 0.01 0.03 0.04 0.04 0.04 0.03 0.02 0.01 0.01 0.02 0.02 0.04 0.05 0.08 0.13 0.15 0.19 0.16 0.18 0.27 0.34 0.25 0.28 0.25 0.18 0.13 0.13 0.13 0.14 0.17 0.33 0.40 0.34 0.33 0.50 0.90 1.26 1.40 1.37 1.19
0.01 0.01 0.01 0.03 0.06 0.09 0.09 0.10 0.09 0.08 0.07 0.06 0.05 0.05 0.06 0.09 0.20 0.26 0.23 0.28 0.21 0.20 0.30 0.39 0.32 0.40 0.27 0.21 0.16 0.13 0.14 0.13 0.13 0.20 0.25 0.28 0.38 0.54 0.74 1.06 1.29 1.35 1.26
0.03 0.03 0.04 0.07 0.11 0.15 0.18 0.21 0.23 0.25 0.21 0.20 0.22 0.20 0.18 0.20 0.33 0.36 0.34 0.33 0.36 0.39 0.50 0.49 0.46 0.48 0.36 0.28 0.24 0.24 0.21 0.19 0.17 0.22 0.26 0.32 0.36 0.42 0.56 0.78 1.05 1.17 1.15
0.09 0.09 0.10 0.17 0.26 0.31 0.33 0.36 0.38 0.36 0.35 0.38 0.35 0.29 0.30 0.35 0.44 0.54 0.45 0.45 0.60 0.63 0.67 0.74 0.67 0.66 0.67 0.53 0.41 0.31 0.26 0.25 0.23 0.26 0.31 0.38 0.37 0.27 0.39 0.65 0.77 0.81 0.95
0.24 0.24 0.27 0.34 0.45 0.53 0.61 0.66 0.58 0.57 0.55 0.54 0.48 0.45 0.46 0.50 0.61 0.81 0.74 0.77 0.83 0.96 0.93 0.89 0.97 1.03 0.93 0.82 0.56 0.45 0.31 0.32 0.32 0.30 0.31 0.34 0.34 0.31 0.29 0.38 0.60 0.64 0.82
0.48 0.49 0.50 0.57 0.72 1.05 1.30 1.19 1.01 0.82 0.73 0.71 0.64 0.61 0.66 0.75 0.89 1.12 1.00 1.06 1.21 1.36 1.37 1.36 1.38 1.30 1.15 1.06 0.72 0.52 0.38 0.30 0.29 0.30 0.30 0.32 0.32 0.29 0.28 0.32 0.34 0.38 0.48
0.73 0.79 0.82 0.98 1.25 1.46 1.47 1.49 1.50 1.36 1.21 0.96 0.80 0.79 0.88 0.93 1.07 1.39 1.28 1.52 1.69 1.70 1.70 1.61 1.64 1.48 1.31 1.31 1.06 0.71 0.39 0.24 0.21 0.23 0.25 0.27 0.28 0.33 0.38 0.46 0.50 0.55 0.52
0.92 1.10 1.34 1.69 1.97 1.85 1.94 2.12 2.04 1.89 1.44 1.17 1.04 1.01 1.06 1.19 1.31 1.46 1.72 1.83 1.91 1.90 1.88 1.83 1.79 1.56 1.36 1.41 1.34 1.08 0.67 0.42 0.29 0.27 0.34 0.37 0.40 0.40 0.38 0.44 0.54 0.65 0.58
1.36 1.58 1.83 2.10 2.20 2.13 2.24 2.28 2.00 1.87 1.52 1.39 1.32 1.22 1.23 1.41 1.51 1.64 1.80 1.91 1.83 1.79 1.75 1.82 1.76 1.59 1.42 1.40 1.47 1.37 1.01 0.71 0.47 0.34 0.41 0.50 0.62 0.60 0.46 0.39 0.37 0.32 0.31
1.76 2.10 2.37 2.40 2.38 2.31 2.36 2.30 2.15 1.97 1.73 1.67 1.71 1.51 1.36 1.36 1.42 1.52 1.59 1.71 1.74 1.73 1.59 1.55 1.58 1.59 1.49 1.35 1.44 1.46 1.36 1.12 0.87 0.53 0.38 0.41 0.52 0.58 0.55 0.44 0.38 0.30 0.27
1.68 1.99 2.23 2.41 2.43 2.33 2.27 2.18 2.13 1.95 1.78 1.68 1.62 1.49 1.42 1.45 1.38 1.36 1.41 1.55 1.60 1.55 1.47 1.53 1.60 1.57 1.43 1.29 1.31 1.37 1.45 1.41 1.22 0.92 0.59 0.45 0.43 0.44 0.51 0.45 0.34 0.27 0.26
1.50 1.75 1.93 2.06 2.06 2.01 1.94 1.91 1.91 1.87 1.86 1.72 1.57 1.57 1.60 1.54 1.38 1.30 1.32 1.41 1.44 1.40 1.35 1.38 1.44 1.42 1.33 1.32 1.31 1.29 1.28 1.26 1.27 1.23 0.92 0.70 0.53 0.33 0.33 0.34 0.34 0.33 0.34

GEFSSE_prec_meanprecacc_066.txt.gz
Total_Precipitation_Accumulation
0.00 0.01 0.04 0.03 0.01 0.01 0.02 0.03 0.05 0.05 0.06 0.08 0.10 0.10 0.07 0.04 0.03 0.03 0.03 0.03 0.03 0.03 0.03 0.03 0.06 0.05 0.06 0.06 0.04 0.02 0.01 0.01 0.01 0.01 0.01 0.01 0.01 0.02 0.03 0.02 0.05 0.04 0.02
0.00 0.01 0.03 0.02 0.01 0.01 0.02 0.03 0.04 0.04 0.04 0.05 0.08 0.09 0.06 0.04 0.03 0.02 0.04 0.06 0.05 0.03 0.04 0.05 0.04 0.04 0.05 0.05 0.03 0.01 0.00 0.00 0.01 0.01 0.01 0.01 0.01 0.01 0.02 0.01 0.04 0.03 0.01
0.00 0.00 0.02 0.02 0.02 0.01 0.01 0.03 0.05 0.04 0.03 0.03 0.04 0.05 0.04 0.03 0.03 0.02 0.03 0.09 0.11 0.09 0.06 0.03 0.02 0.02 0.02 0.02 0.02 0.01 0.01 0.00 0.01 0.01 0.01 0.02 0.01 0.02 0.03 0.02 0.01 0.01 0.01
0.00 0.00 0.01 0.02 0.01 0.01 0.01 0.01 0.03 0.04 0.04 0.06 0.07 0.06 0.05 0.04 0.04 0.03 0.03 0.06 0.09 0.07 0.07 0.03 0.02 0.02 0.01 0.01 0.01 0.01 0.02 0.01 0.01 0.01 0.03 0.11 0.09 0.04 0.06 0.06 0.05 0.03 0.02
0.00 0.00 0.02 0.02 0.01 0.01 0.01 0.01 0.03 0.04 0.05 0.08 0.08 0.07 0.07 0.07 0.06 0.05 0.05 0.06 0.06 0.04 0.04 0.04 0.03 0.02 0.01 0.01 0.01 0.02 0.02 0.01 0.01 0.01 0.03 0.10 0.13 0.07 0.07 0.11 0.11 0.10 0.07
0.00 0.00 0.02 0.02 0.01 0.01 0.01 0.01 0.02 0.03 0.04 0.06 0.06 0.05 0.06 0.05 0.07 0.07 0.06 0.08 0.09 0.08 0.05 0.06 0.06 0.07 0.05 0.03 0.02 0.02 0.02 0.02 0.02 0.02 0.04 0.04 0.12 0.13 0.10 0.20 0.24 0.24 0.19
0.00 0.01 0.02 0.02 0.01 0.01 0.01 0.01 0.02 0.02 0.03 0.04 0.04 0.03 0.03 0.03 0.04 0.05 0.06 0.06 0.07 0.09 0.09 0.09 0.10 0.07 0.09 0.08 0.05 0.03 0.03 0.04 0.03 0.02 0.02 0.03 0.10 0.09 0.15 0.36 0.51 0.46 0.37
0.00 0.01 0.02 0.02 0.01 0.01 0.01 0.01 0.02 0.02 0.02 0.02 0.02 0.02 0.01 0.02 0.03 0.04 0.04 0.03 0.02 0.03 0.05 0.07 0.12 0.10 0.08 0.13 0.11 0.07 0.06 0.07 0.06 0.03 0.03 0.06 0.09 0.12 0.23 0.46 0.61 0.58 0.49
0.00 0.00 0.01 0.01 0.02 0.02 0.01 0.01 0.01 0.01 0.01 0.01 0.01 0.01 0.01 0.01 0.01 0.01 0.01 0.01 0.01 0.01 0.02 0.03 0.04 0.06 0.07 0.10 0.14 0.14 0.11 0.10 0.11 0.16 0.09 0.15 0.20 0.25 0.42 0.59 0.71 0.70 0.64
0.01 0.00 0.01 0.01 0.01 0.01 0.01 0.01 0.01 0.01 0.01 0.01 0.01 0.01 0.01 0.01 0.01 0.01 0.01 0.01 0.01 0.01 0.01 0.02 0.03 0.04 0.06 0.08 0.11 0.18 0.22 0.15 0.06 0.09 0.20 0.18 0.16 0.36 0.63 0.76 0.89 0.90 0.85
0.01 0.01 0.01 0.00 0.01 0.01 0.01 0.00 0.01 0.01 0.01 0.01 0.01 0.01 0.01 0.00 0.01 0.04 0.02 0.02 0.03 0.05 0.07 0.08 0.07 0.08 0.09 0.08 0.13 0.25 0.28 0.13 0.07 0.09 0.15 0.12 0.17 0.45 0.76 0.90 0.96 1.02 1.01
0.01 0.01 0.01 0.00 0.00 0.01 0.01 0.01 0.00 0.00 0.01 0.01 0.03 0.03 0.02 0.03 0.04 0.03 0.02 0.05 0.14 0.20 0.24 0.31 0.34 0.27 0.22 0.29 0.60 0.55 0.17 0.10 0.11 0.12 0.16 0.11 0.23 0.53 0.81 1.04 1.12 1.09 1.09
0.00 0.00 0.00 0.01 0.01 0.01 0.01 0.01 0.00 0.00 0.02 0.01 0.02 0.05 0.08 0.05 0.03 0.01 0.01 0.06 0.12 0.17 0.26 0.42 0.48 0.37 0.44 0.55 0.55 0.50 0.19 0.11 0.11 0.10 0.18 0.19 0.27 0.60 0.96 1.19 1.33 1.26 1.18
0.00 0.00 0.00 0.01 0.01 0.02 0.01 0.01 0.01 0.00 0.01 0.01 0.01 0.02 0.05 0.06 0.04 0.05 0.07 0.10 0.17 0.21 0.30 0.34 0.47 0.35 0.36 0.34 0.27 0.28 0.26 0.30 0.22 0.29 0.43 0.31 0.26 0.50 0.97 1.23 1.42 1.43 1.21
0.00 0.00 0.01 0.01 0.03 0.04 0.04 0.05 0.04 0.02 0.01 0.01 0.02 0.03 0.04 0.07 0.09 0.16 0.18 0.22 0.18 0.21 0.30 0.38 0.30 0.35 0.37 0.31 0.25 0.24 0.23 0.24 0.24 0.40 0.44 0.37 0.38 0.56 1.01 1.39 1.52 1.49 1.30
0.01 0.01 0.02 0.04 0.08 0.10 0.10 0.11 0.10 0.08 0.07 0.06 0.05 0.06 0.07 0.11 0.24 0.33 0.30 0.34 0.26 0.27 0.38 0.50 0.44 0.53 0.41 0.38 0.30 0.28 0.28 0.25 0.22 0.29 0.33 0.35 0.43 0.61 0.86 1.20 1.41 1.46 1.36
0.03 0.03 0.04 0.10 0.14 0.18 0.21 0.23 0.25 0.27 0.23 0.22 0.23 0.22 0.22 0.25 0.40 0.44 0.42 0.40 0.45 0.53 0.65 0.62 0.59 0.64 0.51 0.44 0.40 0.42 0.38 0.31 0.28 0.33 0.37 0.41 0.42 0.46 0.62 0.89 1.15 1.26 1.25
0.09 0.09 0.11 0.19 0.30 0.35 0.36 0.39 0.40 0.39 0.37 0.40 0.38 0.34 0.37 0.43 0.53 0.63 0.53 0.53 0.74 0.81 0.85 0.92 0.85 0.86 0.86 0.72 0.61 0.51 0.47 0.42 0.37 0.39 0.41 0.47 0.44 0.31 0.42 0.71 0.85 0.87 1.02
0.24 0.25 0.28 0.36 0.49 0.58 0.65 0.70 0.62 0.59 0.57 0.56 0.53 0.50 0.52 0.59 0.73 0.93 0.85 0.88 1.01 1.18 1.14 1.09 1.20 1.27 1.19 1.07 0.86 0.74 0.53 0.47 0.45 0.42 0.40 0.41 0.41 0.37 0.32 0.41 0.63 0.67 0.86
0.49 0.50 0.53 0.61 0.76 1.08 1.32 1.20 1.03 0.84 0.75 0.74 0.68 0.67 0.74 0.85 0.99 1.25 1.13 1.21 1.41 1.56 1.55 1.55 1.62 1.60 1.48 1.44 1.15 0.87 0.63 0.47 0.43 0.42 0.37 0.37 0.37 0.34 0.32 0.34 0.37 0.40 0.50
0.74 0.80 0.83 0.99 1.25 1.47 1.48 1.49 1.51 1.37 1.22 0.98 0.82 0.81 0.91 0.97 1.13 1.47 1.36 1.63 1.84 1.87 1.90 1.88 1.97 1.84 1.69 1.76 1.55 1.11 0.68 0.44 0.36 0.35 0.34 0.33 0.32 0.36 0.42 0.49 0.53 0.58 0.55
0.92 1.10 1.34 1.69 1.97 1.85 1.94 2.12 2.04 1.89 1.44 1.17 1.04 1.02 1.07 1.21 1.33 1.49 1.76 1.87 1.97 1.98 1.98 1.96 1.95 1.76 1.58 1.75 1.71 1.46 0.97 0.64 0.46 0.40 0.44 0.42 0.43 0.44 0.42 0.47 0.58 0.69 0.62
1.36 1.58 1.83 2.10 2.20 2.13 2.24 2.28 2.00 1.87 1.52 1.39 1.32 1.22 1.23 1.41 1.51 1.64 1.81 1.92 1.85 1.82 1.78 1.86 1.84 1.70 1.55 1.58 1.70 1.63 1.26 0.91 0.62 0.44 0.47 0.53 0.66 0.64 0.50 0.44 0.41 0.36 0.35
1.76 2.10 2.37 2.40 2.38 2.31 2.36 2.30 2.16 1.98 1.73 1.67 1.71 1.51 1.36 1.36 1.42 1.52 1.59 1.71 1.75 1.74 1.61 1.57 1.61 1.63 1.56 1.45 1.55 1.59 1.49 1.25 1.01 0.64 0.46 0.46 0.58 0.62 0.59 0.49 0.42 0.34 0.31
1.69 1.99 2.23 2.41 2.44 2.33 2.27 2.19 2.13 1.96 1.78 1.69 1.62 1.49 1.42 1.46 1.38 1.36 1.42 1.55 1.60 1.56 1.48 1.54 1.61 1.60 1.47 1.35 1.39 1.44 1.53 1.49 1.31 1.02 0.66 0.52 0.50 0.48 0.54 0.50 0.39 0.32 0.30
1.51 1.75 1.93 2.06 2.07 2.02 1.95 1.92 1.92 1.88 1.86 1.73 1.57 1.57 1.60 1.54 1.38 1.30 1.32 1.41 1.44 1.40 1.35 1.39 1.45 1.44 1.35 1.35 1.36 1.35 1.35 1.32 1.33 1.29 0.98 0.76 0.61 0.39 0.37 0.38 0.38 0.36 0.38

GEFSSE_prec_meanprecacc_072.txt.gz
Total_Precipitation_Accumulation
0.00 0.01 0.04 0.03 0.01 0.01 0.02 0.03 0.05 0.05 0.06 0.08 0.10 0.10 0.07 0.05 0.03 0.03 0.04 0.03 0.03 0.03 0.03 0.04 0.06 0.05 0.06 0.06 0.05 0.02 0.01 0.01 0.01 0.01 0.01 0.01 0.01 0.02 0.03 0.02 0.10 0.10 0.04
0.00 0.01 0.03 0.02 0.01 0.01 0.02 0.03 0.04 0.04 0.04 0.05 0.08 0.09 0.06 0.04 0.03 0.02 0.04 0.06 0.05 0.04 0.04 0.05 0.04 0.04 0.05 0.06 0.03 0.01 0.00 0.00 0.01 0.01 0.01 0.01 0.01 0.01 0.02 0.02 0.09 0.08 0.02
0.00 0.00 0.02 0.02 0.02 0.01 0.02 0.03 0.05 0.04 0.03 0.03 0.05 0.05 0.04 0.03 0.03 0.02 0.03 0.09 0.11 0.09 0.06 0.03 0.02 0.02 0.02 0.02 0.02 0.01 0.01 0.00 0.01 0.01 0.02 0.06 0.02 0.02 0.03 0.02 0.02 0.01 0.01
0.00 0.00 0.01 0.02 0.01 0.01 0.01 0.01 0.03 0.04 0.04 0.06 0.07 0.06 0.05 0.04 0.04 0.03 0.03 0.06 0.09 0.07 0.07 0.03 0.02 0.02 0.01 0.01 0.01 0.01 0.02 0.01 0.01 0.01 0.06 0.20 0.11 0.04 0.06 0.06 0.05 0.03 0.02
0.00 0.00 0.02 0.02 0.01 0.01 0.01 0.01 0.03 0.04 0.05 0.08 0.08 0.07 0.07 0.07 0.06 0.05 0.05 0.06 0.06 0.04 0.04 0.04 0.03 0.02 0.01 0.01 0.01 0.02 0.02 0.01 0.01 0.01 0.04 0.13 0.15 0.09 0.07 0.11 0.11 0.10 0.07
0.00 0.00 0.02 0.02 0.01 0.01 0.01 0.01 0.02 0.03 0.04 0.06 0.06 0.05 0.06 0.05 0.07 0.07 0.06 0.08 0.09 0.08 0.05 0.06 0.06 0.07 0.05 0.03 0.02 0.02 0.02 0.02 0.02 0.02 0.04 0.04 0.15 0.15 0.11 0.20 0.25 0.25 0.20
0.00 0.01 0.02 0.02 0.01 0.01 0.01 0.02 0.02 0.02 0.03 0.04 0.04 0.03 0.03 0.03 0.04 0.05 0.06 0.06 0.07 0.09 0.09 0.09 0.10 0.07 0.09 0.08 0.05 0.04 0.03 0.04 0.03 0.02 0.02 0.03 0.12 0.10 0.16 0.37 0.53 0.51 0.41
0.00 0.01 0.02 0.02 0.01 0.01 0.01 0.01 0.02 0.02 0.02 0.02 0.02 0.02 0.01 0.02 0.03 0.04 0.04 0.04 0.02 0.03 0.05 0.08 0.12 0.11 0.09 0.13 0.11 0.07 0.06 0.07 0.06 0.03 0.03 0.06 0.10 0.12 0.23 0.47 0.63 0.62 0.54
0.00 0.00 0.01 0.01 0.02 0.02 0.01 0.01 0.01 0.01 0.01 0.01 0.01 0.01 0.01 0.01 0.01 0.01 0.02 0.01 0.01 0.01 0.03 0.04 0.05 0.06 0.07 0.11 0.15 0.14 0.11 0.10 0.11 0.16 0.09 0.16 0.20 0.25 0.42 0.59 0.72 0.72 0.67
0.01 0.00 0.01 0.01 0.01 0.01 0.01 0.01 0.01 0.01 0.01 0.01 0.01 0.01 0.01 0.01 0.01 0.01 0.01 0.01 0.01 0.01 0.02 0.02 0.03 0.04 0.06 0.08 0.11 0.18 0.22 0.15 0.06 0.09 0.20 0.18 0.17 0.37 0.63 0.76 0.89 0.92 0.89
0.01 0.01 0.01 0.00 0.01 0.01 0.01 0.00 0.01 0.01 0.01 0.01 0.01 0.01 0.01 0.00 0.02 0.06 0.04 0.04 0.04 0.06 0.07 0.08 0.07 0.08 0.10 0.09 0.14 0.27 0.29 0.13 0.07 0.09 0.15 0.13 0.18 0.46 0.77 0.91 0.97 1.03 1.04
0.01 0.01 0.01 0.00 0.00 0.01 0.01 0.01 0.00 0.00 0.01 0.01 0.04 0.05 0.05 0.05 0.07 0.04 0.04 0.08 0.16 0.23 0.25 0.31 0.36 0.28 0.23 0.31 0.67 0.67 0.20 0.10 0.12 0.12 0.16 0.11 0.23 0.53 0.82 1.04 1.13 1.11 1.10
0.00 0.00 0.00 0.01 0.01 0.01 0.01 0.01 0.00 0.00 0.02 0.02 0.04 0.10 0.14 0.10 0.07 0.02 0.02 0.11 0.24 0.26 0.32 0.48 0.54 0.41 0.48 0.65 0.66 0.62 0.23 0.14 0.13 0.12 0.19 0.20 0.29 0.62 0.98 1.21 1.34 1.27 1.20
0.00 0.00 0.00 0.01 0.01 0.02 0.01 0.01 0.01 0.00 0.01 0.01 0.03 0.05 0.11 0.14 0.09 0.09 0.12 0.15 0.27 0.34 0.46 0.47 0.58 0.45 0.49 0.48 0.38 0.34 0.31 0.36 0.25 0.32 0.47 0.34 0.29 0.52 1.00 1.26 1.44 1.45 1.23
0.00 0.00 0.01 0.01 0.03 0.04 0.04 0.05 0.04 0.02 0.01 0.01 0.02 0.03 0.08 0.14 0.17 0.25 0.27 0.31 0.23 0.29 0.44 0.56 0.44 0.51 0.53 0.44 0.35 0.32 0.30 0.30 0.28 0.43 0.50 0.44 0.42 0.59 1.04 1.42 1.54 1.52 1.33
0.01 0.01 0.02 0.04 0.08 0.10 0.10 0.11 0.10 0.08 0.07 0.06 0.06 0.07 0.10 0.19 0.34 0.43 0.41 0.46 0.37 0.41 0.56 0.73 0.67 0.77 0.60 0.54 0.40 0.39 0.38 0.34 0.28 0.34 0.41 0.48 0.52 0.65 0.89 1.24 1.46 1.50 1.40
0.03 0.03 0.04 0.10 0.14 0.18 0.21 0.23 0.25 0.27 0.23 0.22 0.25 0.24 0.25 0.32 0.51 0.55 0.54 0.54 0.64 0.74 0.90 0.88 0.87 0.93 0.77 0.69 0.61 0.62 0.53 0.43 0.38 0.43 0.46 0.54 0.54 0.56 0.71 0.96 1.22 1.31 1.30
0.09 0.09 0.11 0.19 0.30 0.35 0.36 0.39 0.41 0.39 0.37 0.41 0.40 0.37 0.42 0.50 0.67 0.79 0.66 0.67 0.93 1.04 1.09 1.15 1.10 1.12 1.11 1.01 0.93 0.76 0.67 0.62 0.52 0.54 0.54 0.61 0.58 0.44 0.59 0.87 0.94 0.94 1.07
0.25 0.26 0.29 0.37 0.50 0.59 0.66 0.72 0.64 0.60 0.58 0.58 0.55 0.54 0.58 0.66 0.82 1.06 0.97 1.02 1.18 1.36 1.32 1.25 1.46 1.52 1.42 1.32 1.13 1.02 0.77 0.68 0.64 0.58 0.57 0.58 0.60 0.53 0.43 0.53 0.73 0.75 0.92
0.55 0.59 0.55 0.62 0.79 1.10 1.34 1.23 1.05 0.85 0.76 0.76 0.70 0.69 0.77 0.89 1.05 1.33 1.21 1.30 1.53 1.68 1.68 1.69 1.77 1.77 1.65 1.61 1.33 1.08 0.86 0.68 0.66 0.62 0.57 0.56 0.54 0.47 0.40 0.40 0.47 0.48 0.55
0.76 0.83 0.85 1.00 1.27 1.49 1.51 1.52 1.53 1.39 1.23 0.98 0.82 0.81 0.92 0.99 1.15 1.50 1.40 1.68 1.90 1.93 1.97 1.96 2.07 1.94 1.79 1.90 1.69 1.22 0.80 0.57 0.47 0.44 0.45 0.46 0.41 0.43 0.47 0.55 0.61 0.68 0.66
0.93 1.12 1.36 1.72 2.00 1.88 1.98 2.15 2.06 1.90 1.45 1.18 1.04 1.02 1.07 1.21 1.33 1.50 1.77 1.89 1.99 2.00 2.00 1.99 2.00 1.81 1.63 1.84 1.80 1.54 1.05 0.71 0.52 0.46 0.50 0.47 0.47 0.47 0.46 0.53 0.65 0.80 0.74
1.39 1.61 1.86 2.15 2.24 2.17 2.28 2.31 2.02 1.89 1.53 1.40 1.32 1.22 1.23 1.41 1.51 1.65 1.81 1.92 1.85 1.83 1.79 1.88 1.86 1.74 1.59 1.64 1.77 1.72 1.34 0.96 0.69 0.51 0.53 0.57 0.70 0.68 0.52 0.47 0.47 0.44 0.45
1.80 2.15 2.42 2.44 2.42 2.35 2.41 2.35 2.21 2.01 1.76 1.70 1.72 1.51 1.36 1.36 1.42 1.52 1.59 1.71 1.75 1.74 1.61 1.58 1.62 1.65 1.59 1.47 1.60 1.65 1.56 1.34 1.09 0.69 0.50 0.51 0.65 0.70 0.64 0.53 0.47 0.42 0.42
1.72 2.03 2.27 2.44 2.46 2.36 2.31 2.25 2.21 2.01 1.80 1.70 1.63 1.50 1.43 1.46 1.38 1.36 1.42 1.55 1.61 1.56 1.48 1.54 1.62 1.61 1.49 1.37 1.42 1.48 1.59 1.57 1.39 1.09 0.71 0.59 0.59 0.56 0.62 0.57 0.47 0.41 0.43
1.56 1.81 1.98 2.09 2.12 2.09 2.02 1.98 1.99 1.94 1.91 1.76 1.60 1.60 1.63 1.55 1.38 1.31 1.33 1.41 1.45 1.41 1.36 1.39 1.46 1.45 1.37 1.38 1.39 1.39 1.39 1.37 1.38 1.36 1.04 0.83 0.70 0.50 0.49 0.50 0.50 0.48 0.49

GEFSSE_prec_meanprecacc_078.txt.gz
Total_Precipitation_Accumulation
0.00 0.01 0.04 0.03 0.01 0.01 0.02 0.03 0.05 0.05 0.06 0.08 0.10 0.10 0.07 0.05 0.03 0.03 0.04 0.03 0.03 0.03 0.03 0.04 0.06 0.06 0.06 0.06 0.05 0.02 0.01 0.01 0.01 0.02 0.02 0.02 0.02 0.03 0.04 0.03 0.10 0.10 0.05
0.00 0.01 0.03 0.02 0.01 0.01 0.02 0.03 0.04 0.04 0.04 0.05 0.08 0.09 0.06 0.04 0.03 0.02 0.04 0.06 0.05 0.04 0.04 0.05 0.04 0.04 0.05 0.06 0.03 0.01 0.00 0.00 0.01 0.01 0.01 0.02 0.02 0.03 0.03 0.03 0.10 0.08 0.03
0.00 0.00 0.02 0.02 0.02 0.01 0.02 0.03 0.05 0.04 0.03 0.03 0.05 0.05 0.04 0.03 0.03 0.02 0.03 0.09 0.11 0.09 0.06 0.03 0.03 0.02 0.02 0.02 0.02 0.01 0.01 0.00 0.01 0.01 0.02 0.06 0.02 0.02 0.04 0.03 0.02 0.01 0.01
0.00 0.00 0.01 0.02 0.01 0.01 0.01 0.01 0.03 0.04 0.04 0.06 0.07 0.06 0.05 0.04 0.04 0.03 0.04 0.06 0.09 0.07 0.07 0.03 0.02 0.02 0.01 0.01 0.01 0.01 0.02 0.01 0.01 0.01 0.07 0.23 0.12 0.05 0.07 0.06 0.05 0.03 0.02
0.00 0.00 0.02 0.02 0.01 0.01 0.01 0.01 0.03 0.04 0.05 0.08 0.08 0.07 0.07 0.07 0.06 0.05 0.05 0.06 0.06 0.04 0.04 0.04 0.03 0.02 0.01 0.01 0.01 0.02 0.02 0.01 0.01 0.01 0.05 0.17 0.17 0.10 0.09 0.11 0.11 0.10 0.07
0.00 0.00 0.02 0.02 0.01 0.01 0.01 0.02 0.02 0.03 0.04 0.06 0.06 0.05 0.06 0.06 0.07 0.07 0.06 0.08 0.09 0.08 0.05 0.06 0.06 0.07 0.05 0.03 0.02 0.02 0.02 0.02 0.02 0.02 0.04 0.05 0.16 0.17 0.13 0.21 0.25 0.25 0.20
0.00 0.01 0.02 0.02 0.01 0.01 0.01 0.02 0.02 0.03 0.03 0.04 0.04 0.03 0.03 0.03 0.04 0.05 0.06 0.06 0.07 0.09 0.09 0.09 0.10 0.07 0.09 0.08 0.05 0.04 0.03 0.04 0.03 0.02 0.02 0.04 0.12 0.12 0.18 0.38 0.54 0.52 0.41
0.00 0.01 0.02 0.02 0.01 0.01 0.01 0.01 0.02 0.02 0.02 0.02 0.02 0.02 0.01 0.02 0.03 0.04 0.04 0.04 0.02 0.03 0.05 0.08 0.12 0.11 0.09 0.13 0.11 0.07 0.06 0.07 0.06 0.04 0.03 0.06 0.10 0.13 0.25 0.48 0.64 0.62 0.55
0.00 0.00 0.01 0.01 0.02 0.02 0.01 0.01 0.01 0.01 0.02 0.01 0.01 0.01 0.01 0.01 0.01 0.01 0.02 0.01 0.01 0.01 0.03 0.04 0.05 0.07 0.07 0.11 0.15 0.14 0.11 0.10 0.11 0.16 0.09 0.16 0.20 0.27 0.46 0.62 0.74 0.73 0.68
0.01 0.00 0.01 0.01 0.01 0.01 0.01 0.01 0.01 0.01 0.01 0.01 0.01 0.01 0.01 0.01 0.01 0.01 0.01 0.01 0.02 0.02 0.02 0.03 0.04 0.05 0.07 0.09 0.11 0.18 0.22 0.15 0.06 0.09 0.20 0.18 0.18 0.41 0.69 0.80 0.92 0.93 0.89
0.01 0.01 0.01 0.01 0.01 0.01 0.01 0.00 0.01 0.01 0.01 0.01 0.01 0.01 0.01 0.00 0.02 0.06 0.04 0.05 0.07 0.09 0.11 0.11 0.10 0.10 0.11 0.10 0.15 0.28 0.30 0.14 0.07 0.09 0.15 0.13 0.19 0.51 0.83 0.95 1.00 1.05 1.05
0.01 0.01 0.01 0.01 0.01 0.01 0.01 0.01 0.01 0.00 0.02 0.01 0.04 0.05 0.05 0.05 0.07 0.04 0.05 0.11 0.25 0.33 0.36 0.42 0.47 0.35 0.28 0.33 0.70 0.71 0.22 0.11 0.13 0.12 0.17 0.12 0.25 0.60 0.90 1.10 1.16 1.13 1.12
0.01 0.00 0.01 0.01 0.02 0.02 0.02 0.01 0.01 0.01 0.04 0.03 0.05 0.11 0.15 0.11 0.08 0.04 0.07 0.19 0.36 0.40 0.41 0.61 0.71 0.52 0.57 0.73 0.73 0.67 0.28 0.18 0.17 0.17 0.23 0.23 0.34 0.73 1.10 1.29 1.40 1.31 1.21
0.04 0.01 0.01 0.02 0.02 0.02 0.01 0.02 0.02 0.01 0.02 0.02 0.04 0.07 0.13 0.17 0.14 0.15 0.20 0.25 0.37 0.43 0.56 0.58 0.71 0.60 0.65 0.65 0.55 0.49 0.45 0.49 0.37 0.44 0.59 0.45 0.40 0.67 1.17 1.39 1.52 1.51 1.28
0.10 0.07 0.05 0.03 0.04 0.05 0.06 0.07 0.05 0.04 0.04 0.04 0.05 0.06 0.12 0.22 0.26 0.34 0.35 0.40 0.32 0.40 0.57 0.70 0.57 0.67 0.71 0.62 0.53 0.50 0.51 0.53 0.47 0.63 0.71 0.65 0.60 0.76 1.26 1.63 1.69 1.63 1.42
0.08 0.07 0.06 0.07 0.10 0.14 0.12 0.13 0.13 0.11 0.11 0.10 0.10 0.13 0.19 0.31 0.48 0.54 0.50 0.55 0.47 0.51 0.67 0.84 0.78 0.89 0.74 0.70 0.56 0.59 0.57 0.57 0.57 0.69 0.76 0.74 0.76 0.88 1.11 1.49 1.72 1.72 1.55
0.13 0.09 0.11 0.15 0.20 0.23 0.24 0.26 0.29 0.31 0.28 0.27 0.30 0.31 0.34 0.47 0.68 0.72 0.65 0.61 0.70 0.82 0.99 0.97 0.97 1.04 0.89 0.81 0.73 0.74 0.64 0.56 0.57 0.68 0.75 0.82 0.80 0.82 1.02 1.29 1.54 1.55 1.46
0.27 0.24 0.25 0.33 0.41 0.42 0.40 0.43 0.47 0.45 0.45 0.49 0.48 0.44 0.49 0.61 0.79 0.97 0.81 0.73 1.00 1.13 1.17 1.23 1.19 1.21 1.19 1.08 0.99 0.83 0.74 0.69 0.61 0.65 0.67 0.77 0.80 0.66 0.84 1.15 1.24 1.17 1.25
0.61 0.67 0.74 0.68 0.68 0.71 0.76 0.83 0.74 0.71 0.68 0.66 0.62 0.62 0.65 0.74 0.89 1.14 1.04 1.07 1.23 1.41 1.37 1.31 1.53 1.58 1.47 1.36 1.17 1.06 0.81 0.72 0.68 0.65 0.62 0.64 0.71 0.71 0.65 0.75 1.00 0.98 1.10
1.09 1.21 1.15 1.01 1.07 1.38 1.54 1.43 1.22 1.00 0.86 0.84 0.79 0.80 0.86 0.97 1.15 1.42 1.27 1.33 1.55 1.71 1.71 1.73 1.81 1.81 1.69 1.65 1.36 1.10 0.87 0.70 0.69 0.65 0.60 0.61 0.59 0.55 0.53 0.53 0.60 0.59 0.66
1.49 1.52 1.51 1.61 1.76 1.86 1.82 1.77 1.70 1.51 1.30 1.04 0.88 0.88 1.01 1.09 1.26 1.57 1.42 1.69 1.91 1.94 1.99 1.98 2.08 1.95 1.80 1.92 1.70 1.23 0.80 0.59 0.49 0.45 0.47 0.49 0.44 0.48 0.55 0.64 0.70 0.77 0.73
1.66 1.78 1.94 2.17 2.33 2.14 2.21 2.33 2.19 1.99 1.53 1.29 1.16 1.14 1.19 1.31 1.39 1.53 1.78 1.89 1.99 2.00 2.00 1.99 2.01 1.82 1.64 1.85 1.81 1.55 1.05 0.72 0.53 0.47 0.53 0.51 0.51 0.53 0.52 0.60 0.73 0.88 0.83
1.90 2.15 2.27 2.42 2.43 2.33 2.43 2.43 2.12 1.97 1.61 1.49 1.48 1.41 1.38 1.50 1.57 1.66 1.82 1.93 1.86 1.83 1.79 1.88 1.86 1.74 1.59 1.64 1.78 1.73 1.35 0.97 0.69 0.51 0.55 0.59 0.73 0.72 0.57 0.54 0.55 0.52 0.53
2.08 2.41 2.67 2.62 2.56 2.48 2.52 2.46 2.30 2.09 1.85 1.78 1.81 1.62 1.47 1.43 1.46 1.55 1.61 1.73 1.77 1.75 1.62 1.58 1.62 1.65 1.59 1.47 1.60 1.66 1.57 1.35 1.10 0.70 0.51 0.52 0.67 0.72 0.67 0.57 0.52 0.50 0.53
1.89 2.18 2.42 2.59 2.60 2.50 2.43 2.35 2.30 2.10 1.88 1.76 1.69 1.58 1.53 1.54 1.43 1.40 1.47 1.60 1.64 1.59 1.51 1.56 1.63 1.61 1.49 1.37 1.42 1.48 1.60 1.58 1.40 1.10 0.71 0.60 0.60 0.57 0.64 0.61 0.51 0.49 0.57
1.72 1.97 2.14 2.26 2.29 2.24 2.14 2.09 2.09 2.02 1.97 1.82 1.66 1.65 1.68 1.61 1.44 1.37 1.39 1.48 1.51 1.45 1.39 1.42 1.49 1.46 1.38 1.38 1.39 1.39 1.40 1.38 1.39 1.37 1.04 0.84 0.71 0.51 0.50 0.52 0.53 0.52 0.57

GEFSSE_prec_meanprecacc_084.txt.gz
Total_Precipitation_Accumulation
0.00 0.01 0.04 0.03 0.01 0.01 0.02 0.03 0.05 0.05 0.06 0.08 0.10 0.10 0.07 0.05 0.04 0.03 0.04 0.03 0.03 0.04 0.04 0.04 0.06 0.06 0.06 0.06 0.05 0.02 0.01 0.01 0.02 0.02 0.02 0.03 0.04 0.06 0.07 0.05 0.11 0.11 0.06
0.00 0.01 0.03 0.02 0.01 0.01 0.02 0.03 0.04 0.04 0.04 0.06 0.08 0.09 0.06 0.04 0.03 0.03 0.04 0.06 0.05 0.04 0.04 0.05 0.04 0.04 0.05 0.06 0.03 0.01 0.00 0.00 0.01 0.01 0.02 0.03 0.05 0.08 0.08 0.05 0.10 0.09 0.04
0.00 0.00 0.02 0.02 0.02 0.01 0.02 0.03 0.05 0.04 0.03 0.03 0.05 0.05 0.04 0.03 0.03 0.02 0.03 0.09 0.12 0.09 0.06 0.03 0.03 0.03 0.03 0.03 0.02 0.01 0.01 0.00 0.01 0.01 0.03 0.06 0.03 0.06 0.10 0.05 0.03 0.02 0.02
0.00 0.00 0.01 0.02 0.02 0.01 0.01 0.02 0.03 0.04 0.04 0.06 0.07 0.06 0.05 0.05 0.04 0.03 0.04 0.06 0.09 0.08 0.07 0.03 0.02 0.02 0.01 0.01 0.01 0.01 0.02 0.01 0.01 0.01 0.07 0.23 0.12 0.07 0.10 0.08 0.06 0.04 0.02
0.00 0.00 0.02 0.02 0.01 0.01 0.01 0.01 0.03 0.04 0.05 0.08 0.08 0.07 0.07 0.07 0.06 0.05 0.05 0.06 0.06 0.04 0.04 0.04 0.03 0.03 0.02 0.01 0.01 0.02 0.02 0.02 0.01 0.01 0.06 0.17 0.17 0.11 0.11 0.14 0.13 0.11 0.08
0.00 0.00 0.02 0.02 0.01 0.01 0.01 0.02 0.02 0.03 0.04 0.06 0.06 0.05 0.06 0.06 0.07 0.07 0.06 0.08 0.09 0.08 0.05 0.06 0.06 0.07 0.05 0.03 0.02 0.02 0.02 0.02 0.02 0.02 0.04 0.05 0.16 0.18 0.16 0.24 0.28 0.26 0.21
0.00 0.01 0.02 0.02 0.01 0.01 0.01 0.02 0.02 0.03 0.03 0.04 0.04 0.03 0.03 0.03 0.05 0.05 0.06 0.06 0.07 0.09 0.09 0.09 0.10 0.08 0.09 0.08 0.05 0.04 0.03 0.04 0.04 0.02 0.02 0.04 0.12 0.12 0.21 0.41 0.58 0.54 0.43
0.00 0.01 0.02 0.02 0.01 0.01 0.01 0.01 0.02 0.02 0.02 0.02 0.02 0.02 0.02 0.02 0.03 0.04 0.04 0.04 0.02 0.03 0.05 0.08 0.12 0.11 0.09 0.13 0.11 0.07 0.06 0.07 0.06 0.04 0.03 0.06 0.10 0.13 0.27 0.52 0.69 0.66 0.57
0.00 0.00 0.01 0.01 0.02 0.02 0.01 0.01 0.02 0.02 0.02 0.02 0.02 0.01 0.01 0.01 0.01 0.01 0.02 0.01 0.01 0.01 0.03 0.04 0.05 0.07 0.07 0.11 0.15 0.14 0.11 0.10 0.11 0.16 0.09 0.16 0.20 0.27 0.48 0.67 0.79 0.78 0.71
0.01 0.00 0.01 0.01 0.01 0.01 0.01 0.01 0.02 0.02 0.02 0.01 0.01 0.01 0.01 0.01 0.01 0.01 0.01 0.01 0.02 0.02 0.03 0.04 0.05 0.05 0.07 0.09 0.11 0.19 0.22 0.16 0.06 0.09 0.20 0.18 0.18 0.41 0.72 0.86 0.98 0.99 0.94
0.01 0.01 0.01 0.01 0.01 0.01 0.01 0.01 0.01 0.01 0.01 0.01 0.02 0.01 0.01 0.01 0.02 0.06 0.04 0.07 0.09 0.13 0.15 0.16 0.16 0.14 0.15 0.12 0.17 0.30 0.32 0.14 0.08 0.09 0.16 0.13 0.21 0.52 0.87 1.01 1.07 1.12 1.10
0.01 0.01 0.01 0.01 0.01 0.01 0.02 0.01 0.01 0.01 0.02 0.02 0.05 0.06 0.05 0.06 0.08 0.05 0.07 0.14 0.31 0.43 0.47 0.56 0.63 0.48 0.37 0.38 0.75 0.78 0.25 0.15 0.17 0.14 0.18 0.14 0.29 0.64 0.96 1.18 1.25 1.21 1.19
0.02 0.01 0.01 0.02 0.02 0.03 0.03 0.02 0.02 0.02 0.05 0.05 0.08 0.13 0.17 0.13 0.10 0.07 0.10 0.23 0.44 0.52 0.53 0.80 0.91 0.65 0.67 0.83 0.83 0.75 0.33 0.25 0.23 0.22 0.27 0.30 0.44 0.82 1.19 1.40 1.52 1.42 1.32
0.05 0.03 0.03 0.03 0.05 0.07 0.06 0.05 0.05 0.04 0.04 0.05 0.08 0.11 0.18 0.22 0.20 0.22 0.26 0.33 0.45 0.50 0.67 0.72 0.86 0.76 0.80 0.80 0.71 0.62 0.57 0.61 0.47 0.54 0.67 0.56 0.55 0.81 1.32 1.57 1.69 1.66 1.42
0.13 0.12 0.10 0.09 0.09 0.10 0.11 0.15 0.13 0.09 0.09 0.11 0.12 0.14 0.22 0.32 0.37 0.44 0.44 0.49 0.41 0.48 0.66 0.83 0.72 0.85 0.90 0.81 0.71 0.69 0.70 0.69 0.60 0.75 0.82 0.76 0.78 0.93 1.46 1.86 1.90 1.82 1.62
0.14 0.15 0.15 0.15 0.19 0.23 0.24 0.25 0.25 0.25 0.25 0.25 0.27 0.32 0.38 0.49 0.65 0.68 0.61 0.65 0.57 0.61 0.78 0.97 0.89 1.03 0.90 0.88 0.74 0.77 0.72 0.69 0.68 0.81 0.88 0.84 0.88 1.03 1.29 1.70 1.95 1.96 1.80
0.22 0.21 0.25 0.36 0.48 0.52 0.53 0.55 0.58 0.65 0.61 0.53 0.57 0.61 0.65 0.72 0.86 0.85 0.76 0.71 0.80 0.91 1.08 1.05 1.08 1.21 1.06 0.95 0.86 0.86 0.73 0.62 0.63 0.75 0.84 0.91 0.87 0.91 1.16 1.50 1.79 1.79 1.71
0.39 0.40 0.46 0.65 0.86 0.95 0.92 0.89 0.94 0.96 0.93 0.92 0.87 0.82 0.91 0.93 0.98 1.09 0.90 0.81 1.07 1.19 1.26 1.33 1.29 1.29 1.27 1.16 1.06 0.90 0.80 0.72 0.64 0.67 0.71 0.83 0.86 0.71 0.91 1.31 1.43 1.37 1.45
0.77 0.89 1.05 1.09 1.16 1.28 1.46 1.48 1.35 1.29 1.17 1.10 1.06 0.99 1.02 1.05 1.07 1.28 1.14 1.14 1.29 1.46 1.42 1.35 1.56 1.61 1.49 1.39 1.20 1.09 0.83 0.73 0.70 0.67 0.65 0.67 0.75 0.75 0.70 0.83 1.13 1.13 1.27
1.34 1.55 1.56 1.54 1.74 2.15 2.39 2.23 1.87 1.50 1.28 1.17 1.08 1.01 1.07 1.19 1.29 1.53 1.38 1.40 1.59 1.73 1.74 1.76 1.84 1.84 1.71 1.67 1.39 1.12 0.89 0.71 0.70 0.66 0.61 0.61 0.61 0.57 0.57 0.58 0.67 0.67 0.78
1.77 1.87 1.95 2.20 2.54 2.67 2.58 2.47 2.35 1.98 1.66 1.32 1.09 1.05 1.16 1.22 1.35 1.62 1.45 1.70 1.91 1.95 2.00 1.99 2.09 1.96 1.82 1.94 1.72 1.24 0.81 0.59 0.49 0.45 0.47 0.49 0.44 0.49 0.58 0.69 0.75 0.81 0.78
1.89 2.10 2.35 2.61 2.87 2.71 2.80 2.95 2.81 2.49 1.87 1.52 1.32 1.26 1.29 1.39 1.45 1.56 1.80 1.90 2.00 2.01 2.01 2.00 2.01 1.83 1.64 1.85 1.81 1.55 1.05 0.72 0.53 0.47 0.53 0.51 0.52 0.53 0.53 0.63 0.78 0.92 0.88
2.08 2.44 2.66 2.80 2.85 2.77 2.87 2.94 2.60 2.35 1.91 1.72 1.65 1.53 1.46 1.57 1.62 1.70 1.85 1.95 1.88 1.85 1.80 1.89 1.87 1.74 1.59 1.64 1.78 1.73 1.35 0.97 0.69 0.51 0.55 0.59 0.73 0.73 0.57 0.55 0.57 0.55 0.58
2.20 2.58 2.90 2.86 2.81 2.75 2.83 2.81 2.63 2.34 2.05 1.95 1.96 1.74 1.58 1.53 1.54 1.61 1.66 1.78 1.80 1.77 1.64 1.60 1.63 1.66 1.59 1.47 1.61 1.66 1.57 1.35 1.10 0.70 0.51 0.52 0.67 0.72 0.67 0.58 0.53 0.51 0.56
2.00 2.30 2.55 2.72 2.75 2.68 2.63 2.56 2.51 2.31 2.05 1.92 1.84 1.72 1.65 1.66 1.55 1.51 1.56 1.68 1.70 1.63 1.55 1.60 1.65 1.63 1.49 1.38 1.42 1.49 1.60 1.58 1.40 1.10 0.71 0.60 0.60 0.57 0.64 0.61 0.52 0.49 0.59
1.81 2.07 2.23 2.35 2.39 2.35 2.25 2.20 2.20 2.13 2.08 1.93 1.76 1.76 1.78 1.72 1.55 1.47 1.47 1.56 1.58 1.52 1.45 1.47 1.53 1.49 1.40 1.39 1.40 1.39 1.40 1.38 1.39 1.37 1.05 0.84 0.71 0.51 0.50 0.52 0.53 0.53 0.57

GEFSSE_prec_meanprecacc_090.txt.gz
Total_Precipitation_Accumulation
0.00 0.01 0.04 0.03 0.01 0.01 0.02 0.03 0.05 0.05 0.06 0.08 0.10 0.10 0.07 0.05 0.04 0.03 0.04 0.03 0.03 0.04 0.04 0.04 0.06 0.06 0.07 0.07 0.05 0.02 0.02 0.02 0.02 0.03 0.03 0.04 0.06 0.08 0.09 0.07 0.13 0.12 0.07
0.00 0.01 0.03 0.02 0.02 0.02 0.02 0.03 0.04 0.04 0.04 0.06 0.08 0.09 0.06 0.04 0.03 0.03 0.04 0.06 0.05 0.04 0.04 0.05 0.04 0.04 0.06 0.06 0.04 0.02 0.01 0.01 0.01 0.02 0.02 0.03 0.06 0.10 0.11 0.07 0.13 0.11 0.05
0.00 0.01 0.02 0.02 0.02 0.02 0.02 0.03 0.05 0.04 0.03 0.03 0.05 0.05 0.04 0.03 0.03 0.02 0.03 0.09 0.12 0.09 0.06 0.03 0.03 0.03 0.03 0.03 0.02 0.01 0.01 0.01 0.01 0.02 0.03 0.07 0.04 0.08 0.13 0.07 0.05 0.03 0.03
0.00 0.00 0.01 0.02 0.02 0.01 0.01 0.02 0.03 0.04 0.04 0.06 0.07 0.06 0.05 0.05 0.04 0.03 0.04 0.07 0.09 0.08 0.07 0.03 0.02 0.02 0.02 0.01 0.01 0.01 0.02 0.01 0.01 0.02 0.08 0.23 0.13 0.08 0.13 0.10 0.08 0.05 0.03
0.00 0.00 0.02 0.02 0.01 0.01 0.01 0.01 0.03 0.04 0.05 0.08 0.09 0.07 0.07 0.07 0.06 0.05 0.05 0.06 0.07 0.04 0.04 0.04 0.03 0.03 0.02 0.01 0.01 0.02 0.02 0.02 0.01 0.02 0.06 0.18 0.20 0.13 0.13 0.17 0.15 0.14 0.10
0.00 0.00 0.02 0.02 0.01 0.01 0.01 0.02 0.02 0.03 0.04 0.06 0.06 0.05 0.06 0.06 0.07 0.07 0.06 0.08 0.10 0.09 0.06 0.06 0.06 0.07 0.05 0.03 0.02 0.02 0.02 0.03 0.02 0.03 0.04 0.06 0.19 0.20 0.18 0.26 0.30 0.30 0.24
0.00 0.01 0.02 0.02 0.01 0.01 0.01 0.02 0.02 0.03 0.03 0.04 0.04 0.03 0.03 0.04 0.05 0.05 0.06 0.06 0.07 0.10 0.09 0.10 0.10 0.08 0.09 0.08 0.05 0.04 0.03 0.04 0.04 0.02 0.02 0.05 0.14 0.13 0.22 0.44 0.60 0.56 0.44
0.00 0.01 0.02 0.02 0.02 0.01 0.01 0.02 0.02 0.02 0.02 0.02 0.02 0.02 0.02 0.02 0.03 0.04 0.05 0.04 0.03 0.03 0.05 0.08 0.12 0.11 0.09 0.13 0.11 0.07 0.06 0.07 0.06 0.04 0.03 0.07 0.11 0.13 0.28 0.55 0.72 0.70 0.60
0.00 0.00 0.01 0.01 0.02 0.02 0.01 0.01 0.02 0.02 0.02 0.02 0.02 0.02 0.01 0.01 0.02 0.02 0.02 0.02 0.01 0.02 0.03 0.04 0.05 0.07 0.08 0.11 0.15 0.14 0.11 0.10 0.11 0.16 0.09 0.17 0.21 0.27 0.50 0.70 0.84 0.82 0.76
0.01 0.01 0.01 0.01 0.01 0.01 0.01 0.02 0.02 0.02 0.02 0.02 0.02 0.03 0.03 0.02 0.02 0.02 0.02 0.02 0.02 0.03 0.04 0.05 0.06 0.06 0.09 0.11 0.13 0.20 0.24 0.17 0.07 0.09 0.20 0.18 0.18 0.42 0.75 0.90 1.02 1.05 0.99
0.02 0.01 0.01 0.01 0.01 0.01 0.01 0.01 0.02 0.02 0.03 0.02 0.03 0.04 0.04 0.04 0.05 0.08 0.06 0.09 0.11 0.14 0.17 0.20 0.22 0.21 0.21 0.16 0.19 0.34 0.36 0.17 0.10 0.11 0.16 0.14 0.21 0.54 0.90 1.08 1.15 1.19 1.18
0.01 0.02 0.02 0.01 0.01 0.02 0.02 0.02 0.02 0.02 0.04 0.04 0.07 0.09 0.11 0.13 0.13 0.09 0.10 0.18 0.34 0.46 0.50 0.63 0.73 0.58 0.45 0.45 0.85 0.88 0.31 0.19 0.23 0.17 0.19 0.15 0.30 0.66 1.00 1.26 1.34 1.31 1.28
0.02 0.01 0.02 0.02 0.03 0.04 0.05 0.06 0.05 0.04 0.07 0.08 0.10 0.17 0.22 0.19 0.17 0.13 0.15 0.27 0.49 0.57 0.59 0.89 1.04 0.75 0.81 1.01 1.05 0.92 0.44 0.36 0.31 0.27 0.31 0.35 0.48 0.85 1.23 1.47 1.60 1.52 1.43
0.05 0.03 0.04 0.04 0.06 0.10 0.11 0.09 0.07 0.06 0.07 0.09 0.12 0.17 0.25 0.30 0.29 0.30 0.34 0.41 0.53 0.58 0.77 0.85 1.00 0.92 1.01 1.00 0.93 0.82 0.72 0.77 0.60 0.65 0.77 0.65 0.63 0.88 1.38 1.63 1.76 1.74 1.52
0.13 0.12 0.10 0.09 0.11 0.12 0.14 0.17 0.14 0.11 0.12 0.14 0.17 0.22 0.32 0.43 0.46 0.51 0.51 0.57 0.49 0.56 0.76 0.96 0.89 1.05 1.12 1.03 0.93 0.88 0.89 0.87 0.76 0.88 0.93 0.87 0.89 1.03 1.56 1.94 1.97 1.90 1.71
0.16 0.17 0.17 0.18 0.21 0.26 0.28 0.30 0.29 0.29 0.29 0.30 0.34 0.41 0.50 0.63 0.80 0.81 0.72 0.74 0.66 0.72 0.91 1.09 1.04 1.21 1.10 1.09 0.93 0.96 0.90 0.86 0.81 0.96 1.02 0.98 0.99 1.11 1.38 1.78 2.04 2.05 1.90
0.24 0.24 0.29 0.43 0.56 0.60 0.60 0.62 0.65 0.72 0.69 0.65 0.74 0.83 0.88 0.90 1.02 0.99 0.87 0.81 0.91 1.03 1.18 1.15 1.19 1.35 1.21 1.12 1.01 1.00 0.87 0.76 0.74 0.88 0.97 1.05 0.98 0.98 1.22 1.57 1.89 1.90 1.81
0.43 0.47 0.58 0.81 1.00 1.09 1.07 1.07 1.14 1.14 1.09 1.13 1.19 1.25 1.25 1.18 1.18 1.28 1.07 0.95 1.20 1.29 1.34 1.41 1.38 1.39 1.37 1.27 1.17 0.98 0.88 0.81 0.71 0.75 0.79 0.92 0.97 0.77 0.96 1.37 1.51 1.45 1.53
0.89 1.05 1.24 1.26 1.32 1.47 1.68 1.80 1.67 1.56 1.43 1.39 1.38 1.36 1.33 1.36 1.37 1.55 1.38 1.35 1.47 1.59 1.51 1.42 1.62 1.67 1.55 1.46 1.26 1.15 0.88 0.78 0.75 0.72 0.69 0.73 0.83 0.82 0.76 0.88 1.18 1.19 1.35
1.48 1.72 1.74 1.70 1.89 2.33 2.62 2.51 2.18 1.82 1.62 1.52 1.42 1.36 1.40 1.53 1.61 1.83 1.63 1.60 1.72 1.83 1.81 1.82 1.88 1.87 1.75 1.73 1.43 1.16 0.93 0.74 0.73 0.69 0.63 0.65 0.66 0.61 0.61 0.64 0.74 0.72 0.83
1.86 1.97 2.06 2.31 2.68 2.86 2.81 2.75 2.66 2.30 1.97 1.60 1.37 1.35 1.46 1.51 1.64 1.88 1.67 1.89 2.04 2.02 2.05 2.03 2.12 1.98 1.84 1.96 1.75 1.27 0.85 0.63 0.51 0.47 0.49 0.51 0.47 0.53 0.62 0.75 0.83 0.89 0.85
1.97 2.19 2.46 2.74 3.03 2.92 3.02 3.21 3.09 2.81 2.23 1.87 1.67 1.62 1.65 1.66 1.66 1.76 1.96 2.02 2.11 2.08 2.05 2.03 2.04 1.84 1.66 1.87 1.83 1.58 1.08 0.75 0.55 0.48 0.55 0.53 0.54 0.56 0.57 0.67 0.83 0.99 0.95
2.18 2.53 2.77 2.95 2.99 2.92 3.06 3.17 2.86 2.61 2.16 2.00 1.97 1.85 1.79 1.87 1.86 1.91 2.03 2.09 1.97 1.91 1.85 1.92 1.90 1.77 1.61 1.66 1.80 1.74 1.36 0.98 0.70 0.52 0.56 0.60 0.75 0.75 0.60 0.58 0.60 0.60 0.64
2.26 2.63 2.95 2.93 2.89 2.84 2.93 2.97 2.79 2.50 2.22 2.11 2.12 1.92 1.75 1.73 1.74 1.77 1.79 1.91 1.89 1.83 1.69 1.64 1.65 1.68 1.62 1.49 1.62 1.68 1.58 1.36 1.11 0.70 0.51 0.52 0.67 0.73 0.68 0.59 0.55 0.54 0.60
2.01 2.32 2.57 2.75 2.79 2.71 2.66 2.61 2.57 2.38 2.13 2.00 1.92 1.80 1.75 1.78 1.69 1.64 1.68 1.80 1.81 1.71 1.60 1.64 1.70 1.66 1.53 1.41 1.44 1.50 1.61 1.59 1.41 1.11 0.72 0.60 0.60 0.57 0.64 0.62 0.53 0.51 0.61
1.82 2.08 2.24 2.37 2.41 2.37 2.27 2.22 2.23 2.17 2.12 1.97 1.82 1.82 1.84 1.78 1.64 1.56 1.55 1.62 1.64 1.59 1.53 1.54 1.59 1.55 1.45 1.44 1.45 1.43 1.42 1.40 1.41 1.39 1.06 0.85 0.72 0.51 0.50 0.52 0.54 0.54 0.59

GEFSSE_prec_meanprecacc_096.txt.gz
Total_Precipitation_Accumulation
0.00 0.01 0.04 0.03 0.01 0.01 0.02 0.03 0.05 0.05 0.06 0.08 0.10 0.10 0.07 0.05 0.04 0.03 0.04 0.03 0.03 0.04 0.04 0.04 0.06 0.06 0.07 0.07 0.06 0.03 0.02 0.02 0.03 0.04 0.03 0.04 0.06 0.09 0.11 0.11 0.21 0.16 0.08
0.00 0.01 0.03 0.02 0.02 0.02 0.02 0.03 0.04 0.04 0.04 0.06 0.08 0.09 0.06 0.04 0.03 0.03 0.04 0.07 0.05 0.04 0.05 0.05 0.04 0.04 0.06 0.06 0.04 0.02 0.01 0.01 0.02 0.02 0.03 0.04 0.06 0.11 0.13 0.12 0.23 0.15 0.06
0.00 0.01 0.02 0.02 0.02 0.02 0.02 0.03 0.05 0.04 0.03 0.03 0.05 0.05 0.04 0.03 0.03 0.02 0.04 0.09 0.12 0.10 0.06 0.04 0.03 0.03 0.03 0.03 0.02 0.01 0.01 0.01 0.01 0.02 0.07 0.10 0.04 0.08 0.14 0.11 0.10 0.06 0.05
0.00 0.00 0.01 0.02 0.02 0.01 0.01 0.02 0.03 0.04 0.04 0.06 0.07 0.06 0.05 0.05 0.04 0.03 0.04 0.07 0.10 0.08 0.07 0.03 0.02 0.02 0.02 0.01 0.01 0.01 0.02 0.01 0.02 0.03 0.18 0.29 0.14 0.09 0.14 0.12 0.09 0.06 0.05
0.00 0.00 0.02 0.02 0.01 0.01 0.01 0.02 0.03 0.04 0.05 0.08 0.09 0.07 0.08 0.07 0.06 0.05 0.05 0.07 0.07 0.04 0.04 0.04 0.03 0.03 0.02 0.01 0.01 0.02 0.02 0.02 0.02 0.05 0.12 0.22 0.26 0.15 0.14 0.17 0.16 0.16 0.12
0.00 0.00 0.02 0.02 0.01 0.01 0.01 0.02 0.02 0.03 0.05 0.06 0.06 0.05 0.06 0.06 0.07 0.07 0.07 0.08 0.10 0.09 0.06 0.07 0.06 0.07 0.05 0.03 0.02 0.02 0.02 0.03 0.03 0.05 0.07 0.09 0.24 0.21 0.18 0.27 0.32 0.31 0.26
0.00 0.01 0.02 0.02 0.01 0.01 0.01 0.02 0.02 0.03 0.03 0.04 0.04 0.04 0.03 0.04 0.05 0.06 0.06 0.07 0.08 0.11 0.10 0.10 0.10 0.08 0.09 0.08 0.05 0.04 0.03 0.04 0.05 0.03 0.03 0.09 0.20 0.14 0.22 0.44 0.61 0.58 0.46
0.00 0.01 0.02 0.02 0.02 0.01 0.01 0.02 0.02 0.02 0.02 0.03 0.03 0.02 0.02 0.02 0.03 0.04 0.05 0.05 0.04 0.04 0.06 0.09 0.13 0.11 0.09 0.13 0.11 0.07 0.07 0.07 0.07 0.05 0.03 0.09 0.12 0.14 0.28 0.55 0.73 0.71 0.61
0.00 0.00 0.01 0.01 0.02 0.02 0.01 0.01 0.02 0.02 0.02 0.02 0.02 0.02 0.02 0.02 0.02 0.02 0.02 0.02 0.02 0.03 0.04 0.06 0.06 0.08 0.08 0.11 0.15 0.14 0.11 0.10 0.12 0.17 0.10 0.17 0.21 0.27 0.50 0.71 0.84 0.83 0.78
0.01 0.01 0.01 0.01 0.01 0.01 0.01 0.02 0.02 0.02 0.02 0.02 0.02 0.03 0.03 0.02 0.02 0.02 0.02 0.02 0.02 0.03 0.05 0.06 0.08 0.08 0.10 0.12 0.13 0.21 0.24 0.17 0.07 0.09 0.21 0.19 0.18 0.43 0.75 0.90 1.03 1.05 1.00
0.02 0.01 0.01 0.01 0.01 0.01 0.01 0.01 0.02 0.02 0.03 0.03 0.04 0.04 0.04 0.05 0.05 0.08 0.06 0.09 0.12 0.15 0.18 0.21 0.24 0.25 0.25 0.19 0.21 0.36 0.37 0.17 0.10 0.12 0.17 0.15 0.22 0.55 0.91 1.09 1.15 1.20 1.18
0.01 0.02 0.02 0.01 0.01 0.02 0.02 0.02 0.03 0.02 0.04 0.04 0.09 0.11 0.13 0.15 0.14 0.09 0.11 0.19 0.35 0.47 0.52 0.65 0.77 0.62 0.49 0.49 0.92 0.97 0.34 0.20 0.24 0.19 0.22 0.19 0.32 0.67 1.01 1.27 1.36 1.33 1.31
0.02 0.01 0.02 0.02 0.03 0.04 0.06 0.07 0.07 0.05 0.11 0.12 0.15 0.24 0.27 0.23 0.19 0.14 0.18 0.33 0.55 0.62 0.64 0.96 1.11 0.79 0.87 1.11 1.22 1.07 0.49 0.39 0.33 0.29 0.35 0.42 0.52 0.87 1.25 1.47 1.61 1.55 1.47
0.06 0.03 0.04 0.04 0.07 0.11 0.13 0.13 0.11 0.10 0.11 0.13 0.20 0.29 0.36 0.40 0.35 0.34 0.40 0.49 0.63 0.69 0.88 0.99 1.15 1.03 1.16 1.17 1.10 0.96 0.81 0.83 0.63 0.68 0.84 0.71 0.68 0.91 1.41 1.65 1.77 1.76 1.54
0.16 0.13 0.11 0.10 0.13 0.15 0.18 0.24 0.21 0.17 0.19 0.24 0.31 0.39 0.49 0.58 0.58 0.62 0.61 0.68 0.60 0.70 0.91 1.13 1.07 1.27 1.35 1.26 1.11 1.02 1.01 0.96 0.83 0.96 1.06 1.01 0.96 1.08 1.60 1.97 1.99 1.92 1.73
0.21 0.19 0.19 0.20 0.25 0.32 0.34 0.38 0.38 0.38 0.39 0.40 0.46 0.54 0.65 0.80 0.98 0.98 0.87 0.89 0.82 0.89 1.08 1.27 1.24 1.48 1.37 1.32 1.09 1.09 1.04 0.97 0.92 1.08 1.18 1.21 1.15 1.19 1.43 1.82 2.08 2.09 1.93
0.28 0.28 0.34 0.50 0.64 0.69 0.71 0.73 0.77 0.83 0.80 0.77 0.86 0.96 1.00 1.04 1.20 1.19 1.06 1.00 1.12 1.22 1.36 1.33 1.39 1.57 1.40 1.30 1.17 1.13 1.01 0.91 0.88 1.05 1.19 1.31 1.17 1.13 1.30 1.62 1.94 1.96 1.86
0.48 0.55 0.69 0.90 1.10 1.23 1.24 1.25 1.32 1.32 1.27 1.30 1.36 1.43 1.41 1.35 1.40 1.51 1.28 1.14 1.39 1.50 1.57 1.65 1.59 1.58 1.54 1.42 1.29 1.09 1.02 0.93 0.83 0.90 0.96 1.10 1.17 0.95 1.11 1.46 1.58 1.52 1.60
0.96 1.13 1.34 1.36 1.43 1.59 1.81 1.93 1.80 1.71 1.59 1.57 1.59 1.58 1.56 1.59 1.60 1.78 1.60 1.57 1.70 1.82 1.75 1.64 1.86 1.89 1.73 1.60 1.35 1.23 0.95 0.85 0.82 0.80 0.82 0.88 1.01 0.98 0.91 1.02 1.25 1.24 1.40
1.52 1.77 1.80 1.77 1.97 2.42 2.73 2.63 2.32 1.97 1.79 1.72 1.65 1.61 1.68 1.81 1.89 2.11 1.88 1.87 2.01 2.07 2.01 1.99 2.06 2.03 1.90 1.87 1.52 1.25 1.00 0.80 0.78 0.74 0.69 0.74 0.76 0.68 0.67 0.73 0.85 0.78 0.87
1.88 2.00 2.09 2.36 2.74 2.94 2.91 2.88 2.82 2.49 2.19 1.87 1.69 1.71 1.81 1.85 1.99 2.23 1.95 2.17 2.27 2.22 2.22 2.17 2.26 2.13 1.96 2.07 1.84 1.36 0.92 0.68 0.57 0.52 0.52 0.56 0.53 0.60 0.70 0.84 0.94 1.01 0.94
1.98 2.21 2.49 2.78 3.09 2.98 3.10 3.31 3.23 2.98 2.40 2.03 1.84 1.82 1.89 1.93 1.98 2.10 2.31 2.34 2.38 2.33 2.28 2.20 2.18 1.98 1.78 1.97 1.92 1.65 1.13 0.79 0.58 0.50 0.57 0.56 0.58 0.63 0.63 0.72 0.88 1.08 1.05
2.18 2.55 2.79 2.97 3.02 2.96 3.11 3.23 2.94 2.71 2.28 2.14 2.11 1.99 1.94 2.05 2.09 2.21 2.35 2.40 2.29 2.20 2.15 2.18 2.10 1.94 1.75 1.77 1.88 1.81 1.41 1.02 0.73 0.53 0.56 0.62 0.77 0.79 0.65 0.62 0.63 0.65 0.71
2.27 2.63 2.96 2.94 2.91 2.86 2.98 3.04 2.86 2.58 2.30 2.19 2.21 2.00 1.84 1.82 1.88 1.98 2.04 2.18 2.22 2.19 2.06 1.95 1.91 1.90 1.80 1.63 1.73 1.75 1.64 1.41 1.16 0.75 0.53 0.53 0.68 0.75 0.70 0.62 0.59 0.59 0.64
2.01 2.32 2.58 2.77 2.81 2.74 2.71 2.67 2.63 2.43 2.18 2.05 1.99 1.86 1.81 1.84 1.76 1.74 1.82 2.00 2.05 1.96 1.89 1.95 2.01 1.91 1.74 1.56 1.59 1.62 1.70 1.65 1.45 1.15 0.76 0.64 0.63 0.59 0.66 0.64 0.56 0.55 0.65
1.83 2.09 2.25 2.38 2.44 2.39 2.31 2.27 2.28 2.22 2.16 2.02 1.86 1.87 1.91 1.84 1.71 1.64 1.64 1.74 1.81 1.78 1.74 1.75 1.80 1.76 1.65 1.64 1.62 1.58 1.56 1.50 1.47 1.43 1.10 0.89 0.76 0.54 0.53 0.55 0.57 0.56 0.62

GEFSSE_prec_meanprecacc_102.txt.gz
Total_Precipitation_Accumulation
0.00 0.01 0.04 0.03 0.02 0.01 0.02 0.03 0.05 0.05 0.06 0.08 0.10 0.10 0.07 0.05 0.04 0.03 0.04 0.03 0.04 0.04 0.04 0.04 0.06 0.06 0.07 0.08 0.07 0.04 0.03 0.03 0.04 0.06 0.05 0.05 0.08 0.12 0.14 0.14 0.22 0.17 0.10
0.00 0.01 0.03 0.02 0.02 0.02 0.02 0.03 0.04 0.04 0.04 0.06 0.08 0.09 0.06 0.04 0.03 0.03 0.04 0.07 0.05 0.04 0.05 0.05 0.05 0.05 0.06 0.07 0.05 0.02 0.01 0.02 0.03 0.04 0.05 0.05 0.07 0.13 0.16 0.14 0.24 0.16 0.08
0.00 0.01 0.02 0.02 0.02 0.02 0.02 0.03 0.05 0.04 0.03 0.03 0.05 0.05 0.04 0.03 0.03 0.02 0.04 0.10 0.12 0.10 0.07 0.04 0.03 0.03 0.04 0.04 0.02 0.01 0.01 0.01 0.03 0.05 0.09 0.11 0.05 0.11 0.18 0.14 0.12 0.07 0.06
0.00 0.00 0.01 0.02 0.02 0.02 0.01 0.02 0.03 0.04 0.04 0.06 0.08 0.06 0.05 0.05 0.04 0.04 0.04 0.07 0.10 0.08 0.07 0.03 0.02 0.02 0.02 0.01 0.01 0.02 0.02 0.02 0.04 0.07 0.21 0.31 0.15 0.11 0.16 0.13 0.11 0.07 0.07
0.00 0.00 0.02 0.02 0.01 0.01 0.01 0.02 0.03 0.04 0.06 0.08 0.09 0.08 0.08 0.07 0.06 0.06 0.06 0.07 0.07 0.04 0.04 0.05 0.04 0.03 0.02 0.01 0.01 0.02 0.02 0.03 0.04 0.09 0.15 0.24 0.26 0.17 0.15 0.18 0.17 0.16 0.13
0.00 0.00 0.02 0.02 0.01 0.02 0.01 0.02 0.02 0.03 0.05 0.06 0.06 0.06 0.06 0.06 0.08 0.08 0.07 0.09 0.10 0.09 0.06 0.07 0.06 0.07 0.05 0.03 0.02 0.02 0.02 0.04 0.05 0.08 0.10 0.11 0.25 0.23 0.19 0.27 0.32 0.32 0.26
0.00 0.01 0.02 0.02 0.02 0.01 0.01 0.02 0.02 0.03 0.04 0.05 0.04 0.04 0.04 0.04 0.05 0.06 0.07 0.07 0.08 0.11 0.10 0.10 0.10 0.08 0.09 0.08 0.05 0.04 0.03 0.05 0.06 0.06 0.07 0.12 0.22 0.15 0.23 0.44 0.61 0.58 0.46
0.00 0.01 0.02 0.02 0.02 0.01 0.01 0.02 0.02 0.02 0.03 0.03 0.03 0.03 0.02 0.02 0.03 0.05 0.06 0.05 0.04 0.05 0.06 0.09 0.13 0.11 0.09 0.13 0.11 0.07 0.07 0.08 0.07 0.07 0.08 0.13 0.15 0.15 0.29 0.55 0.73 0.71 0.61
0.00 0.00 0.01 0.02 0.02 0.02 0.01 0.01 0.02 0.02 0.02 0.02 0.02 0.02 0.02 0.02 0.02 0.02 0.03 0.02 0.02 0.03 0.04 0.06 0.07 0.08 0.08 0.12 0.15 0.14 0.11 0.11 0.12 0.18 0.13 0.21 0.25 0.30 0.51 0.71 0.85 0.84 0.78
0.02 0.01 0.01 0.01 0.01 0.01 0.01 0.02 0.02 0.02 0.02 0.02 0.03 0.03 0.03 0.03 0.02 0.02 0.03 0.02 0.03 0.04 0.05 0.07 0.08 0.08 0.10 0.12 0.14 0.21 0.24 0.17 0.07 0.10 0.23 0.22 0.25 0.48 0.77 0.91 1.03 1.05 1.00
0.05 0.03 0.01 0.01 0.01 0.01 0.01 0.01 0.02 0.02 0.03 0.03 0.04 0.04 0.05 0.05 0.05 0.08 0.06 0.10 0.12 0.16 0.18 0.22 0.25 0.26 0.26 0.19 0.22 0.36 0.37 0.17 0.10 0.12 0.20 0.18 0.29 0.63 0.97 1.12 1.17 1.21 1.19
0.08 0.05 0.04 0.02 0.02 0.02 0.03 0.03 0.03 0.03 0.05 0.06 0.11 0.13 0.14 0.16 0.14 0.09 0.12 0.22 0.38 0.50 0.55 0.67 0.79 0.64 0.50 0.50 0.93 0.99 0.34 0.20 0.25 0.20 0.24 0.24 0.40 0.77 1.08 1.31 1.37 1.33 1.31
0.10 0.10 0.09 0.07 0.05 0.07 0.08 0.09 0.09 0.08 0.15 0.17 0.21 0.29 0.30 0.26 0.20 0.16 0.22 0.39 0.61 0.70 0.69 1.00 1.14 0.81 0.89 1.12 1.23 1.09 0.51 0.40 0.35 0.30 0.38 0.48 0.61 0.99 1.34 1.52 1.64 1.56 1.47
0.26 0.22 0.19 0.18 0.17 0.19 0.20 0.18 0.17 0.17 0.22 0.29 0.33 0.41 0.49 0.52 0.43 0.41 0.48 0.58 0.74 0.80 0.99 1.09 1.23 1.09 1.20 1.20 1.14 1.00 0.85 0.89 0.68 0.73 0.89 0.80 0.77 1.01 1.51 1.72 1.81 1.77 1.55
0.44 0.34 0.32 0.32 0.32 0.30 0.35 0.39 0.35 0.32 0.38 0.44 0.54 0.63 0.71 0.81 0.78 0.78 0.75 0.82 0.79 0.93 1.10 1.29 1.21 1.41 1.47 1.36 1.20 1.10 1.08 1.05 0.92 1.04 1.14 1.11 1.09 1.23 1.77 2.10 2.08 1.96 1.75
0.53 0.44 0.48 0.49 0.54 0.62 0.63 0.64 0.64 0.64 0.72 0.77 0.82 0.88 0.95 1.09 1.23 1.16 1.02 1.06 1.00 1.11 1.33 1.50 1.44 1.70 1.58 1.51 1.25 1.23 1.16 1.06 1.02 1.17 1.28 1.33 1.32 1.37 1.62 1.98 2.20 2.17 1.97
0.49 0.50 0.62 0.83 0.96 1.03 1.04 1.03 1.07 1.12 1.09 1.07 1.21 1.33 1.42 1.44 1.50 1.41 1.24 1.18 1.30 1.41 1.58 1.60 1.64 1.80 1.60 1.50 1.34 1.29 1.15 1.01 1.00 1.16 1.31 1.45 1.31 1.29 1.45 1.75 2.05 2.04 1.92
0.63 0.73 0.91 1.15 1.37 1.49 1.51 1.55 1.63 1.57 1.53 1.63 1.70 1.73 1.74 1.69 1.67 1.75 1.50 1.33 1.60 1.73 1.81 1.90 1.87 1.86 1.77 1.63 1.47 1.23 1.14 1.04 0.92 1.01 1.09 1.22 1.30 1.06 1.20 1.56 1.67 1.60 1.66
1.07 1.28 1.52 1.55 1.63 1.79 2.01 2.15 2.01 1.91 1.80 1.80 1.83 1.83 1.80 1.80 1.82 2.03 1.81 1.76 1.93 2.09 2.00 1.87 2.09 2.15 1.97 1.82 1.54 1.37 1.07 0.94 0.90 0.89 0.92 0.97 1.10 1.08 1.00 1.08 1.34 1.32 1.48
1.59 1.84 1.88 1.86 2.06 2.53 2.83 2.74 2.45 2.12 1.93 1.86 1.79 1.74 1.77 1.90 2.00 2.23 2.01 2.02 2.19 2.27 2.25 2.24 2.28 2.24 2.09 2.05 1.72 1.42 1.13 0.89 0.86 0.83 0.78 0.82 0.83 0.75 0.73 0.79 0.90 0.83 0.95
1.91 2.04 2.14 2.41 2.80 3.00 2.97 2.96 2.92 2.60 2.30 1.98 1.76 1.77 1.85 1.89 2.04 2.28 2.02 2.28 2.41 2.36 2.38 2.38 2.47 2.31 2.11 2.24 2.03 1.53 1.08 0.81 0.68 0.61 0.63 0.66 0.61 0.66 0.76 0.91 1.01 1.05 0.97
2.00 2.24 2.52 2.82 3.12 3.02 3.15 3.36 3.29 3.04 2.45 2.09 1.89 1.86 1.92 1.96 2.02 2.15 2.39 2.44 2.51 2.48 2.47 2.41 2.41 2.19 1.93 2.14 2.07 1.79 1.25 0.91 0.70 0.59 0.67 0.64 0.66 0.73 0.73 0.79 0.95 1.13 1.10
2.19 2.55 2.80 2.99 3.05 2.99 3.14 3.27 2.98 2.74 2.31 2.17 2.15 2.04 1.98 2.08 2.13 2.25 2.41 2.49 2.41 2.32 2.32 2.40 2.30 2.13 1.91 1.91 2.03 1.95 1.51 1.09 0.79 0.61 0.65 0.69 0.85 0.88 0.77 0.71 0.69 0.69 0.75
2.27 2.63 2.96 2.95 2.92 2.87 2.99 3.05 2.88 2.60 2.32 2.21 2.23 2.03 1.88 1.86 1.91 2.01 2.08 2.24 2.29 2.28 2.22 2.17 2.12 2.10 1.97 1.79 1.91 1.91 1.76 1.50 1.23 0.81 0.61 0.61 0.76 0.82 0.78 0.69 0.65 0.64 0.69
2.02 2.32 2.59 2.77 2.81 2.75 2.71 2.67 2.64 2.44 2.19 2.06 2.00 1.87 1.83 1.85 1.77 1.77 1.86 2.04 2.09 2.02 1.99 2.11 2.24 2.18 1.99 1.79 1.79 1.79 1.86 1.80 1.55 1.21 0.82 0.72 0.70 0.64 0.70 0.68 0.61 0.61 0.70
1.83 2.10 2.26 2.39 2.44 2.40 2.32 2.27 2.29 2.22 2.17 2.02 1.87 1.88 1.91 1.85 1.72 1.66 1.68 1.78 1.84 1.82 1.78 1.81 1.90 1.92 1.87 1.89 1.85 1.78 1.75 1.70 1.63 1.55 1.20 0.97 0.82 0.58 0.57 0.58 0.60 0.61 0.65

GEFSSE_prec_meanprecacc_108.txt.gz
Total_Precipitation_Accumulation
0.00 0.01 0.05 0.03 0.02 0.01 0.02 0.03 0.05 0.05 0.06 0.08 0.10 0.10 0.07 0.05 0.04 0.03 0.04 0.03 0.04 0.04 0.04 0.04 0.07 0.07 0.08 0.08 0.07 0.05 0.04 0.04 0.05 0.08 0.07 0.07 0.09 0.14 0.17 0.17 0.25 0.18 0.13
0.00 0.01 0.04 0.03 0.02 0.02 0.02 0.03 0.04 0.04 0.04 0.06 0.08 0.09 0.06 0.04 0.03 0.03 0.04 0.07 0.06 0.04 0.05 0.06 0.05 0.05 0.07 0.07 0.05 0.03 0.02 0.03 0.04 0.06 0.07 0.07 0.10 0.15 0.19 0.17 0.25 0.17 0.10
0.00 0.01 0.02 0.03 0.02 0.02 0.02 0.03 0.05 0.04 0.03 0.03 0.05 0.05 0.04 0.03 0.03 0.03 0.04 0.10 0.12 0.10 0.07 0.04 0.03 0.03 0.04 0.04 0.03 0.02 0.02 0.02 0.04 0.06 0.10 0.12 0.07 0.15 0.20 0.16 0.13 0.08 0.09
0.00 0.00 0.01 0.02 0.02 0.02 0.01 0.02 0.03 0.04 0.05 0.06 0.08 0.06 0.05 0.05 0.04 0.04 0.04 0.07 0.10 0.08 0.07 0.04 0.02 0.02 0.02 0.02 0.01 0.02 0.03 0.03 0.05 0.07 0.21 0.31 0.15 0.15 0.19 0.16 0.12 0.09 0.09
0.00 0.00 0.02 0.02 0.02 0.01 0.01 0.02 0.03 0.04 0.06 0.08 0.09 0.08 0.08 0.07 0.06 0.06 0.06 0.07 0.07 0.05 0.05 0.05 0.04 0.03 0.02 0.01 0.01 0.02 0.03 0.04 0.05 0.09 0.15 0.24 0.27 0.20 0.17 0.20 0.18 0.17 0.14
0.00 0.00 0.02 0.02 0.02 0.02 0.02 0.02 0.03 0.04 0.05 0.07 0.06 0.06 0.06 0.06 0.08 0.08 0.07 0.09 0.10 0.09 0.06 0.07 0.07 0.07 0.05 0.03 0.02 0.02 0.03 0.04 0.06 0.08 0.10 0.11 0.26 0.25 0.20 0.29 0.33 0.33 0.27
0.00 0.01 0.02 0.02 0.02 0.02 0.02 0.02 0.03 0.03 0.04 0.05 0.05 0.04 0.04 0.04 0.06 0.06 0.07 0.07 0.08 0.11 0.10 0.10 0.10 0.08 0.09 0.08 0.05 0.04 0.03 0.06 0.06 0.07 0.07 0.13 0.22 0.18 0.24 0.46 0.62 0.59 0.47
0.00 0.01 0.02 0.03 0.02 0.02 0.02 0.02 0.03 0.03 0.04 0.04 0.04 0.03 0.02 0.03 0.04 0.05 0.06 0.05 0.04 0.05 0.06 0.09 0.13 0.11 0.09 0.13 0.11 0.07 0.07 0.08 0.08 0.08 0.09 0.13 0.16 0.19 0.31 0.57 0.74 0.72 0.61
0.01 0.01 0.02 0.02 0.03 0.03 0.03 0.03 0.03 0.03 0.04 0.04 0.03 0.03 0.03 0.02 0.03 0.03 0.03 0.03 0.03 0.03 0.05 0.06 0.07 0.08 0.08 0.12 0.16 0.15 0.12 0.12 0.13 0.19 0.14 0.22 0.28 0.34 0.54 0.74 0.86 0.84 0.78
0.03 0.02 0.02 0.02 0.03 0.03 0.03 0.03 0.04 0.04 0.04 0.04 0.05 0.05 0.05 0.04 0.03 0.03 0.04 0.04 0.04 0.05 0.05 0.07 0.09 0.09 0.11 0.12 0.14 0.21 0.25 0.18 0.08 0.11 0.24 0.22 0.26 0.52 0.81 0.94 1.05 1.06 1.00
0.07 0.05 0.04 0.03 0.03 0.03 0.03 0.03 0.04 0.05 0.06 0.06 0.08 0.09 0.08 0.06 0.07 0.10 0.09 0.12 0.14 0.18 0.20 0.23 0.27 0.28 0.27 0.20 0.23 0.37 0.38 0.17 0.10 0.13 0.21 0.19 0.31 0.66 1.01 1.15 1.19 1.22 1.19
0.10 0.08 0.07 0.05 0.04 0.04 0.05 0.05 0.07 0.07 0.09 0.11 0.17 0.18 0.17 0.18 0.17 0.12 0.15 0.26 0.42 0.55 0.59 0.71 0.83 0.68 0.53 0.53 0.95 1.00 0.35 0.20 0.25 0.20 0.25 0.25 0.43 0.83 1.15 1.36 1.41 1.35 1.32
0.17 0.15 0.13 0.10 0.08 0.10 0.11 0.14 0.16 0.15 0.21 0.25 0.30 0.35 0.35 0.30 0.25 0.20 0.25 0.43 0.66 0.76 0.77 1.10 1.27 0.90 0.95 1.18 1.29 1.12 0.52 0.41 0.35 0.30 0.39 0.50 0.65 1.04 1.43 1.60 1.69 1.59 1.49
0.39 0.32 0.30 0.28 0.28 0.28 0.28 0.26 0.26 0.28 0.33 0.39 0.42 0.49 0.58 0.62 0.51 0.48 0.54 0.64 0.81 0.89 1.09 1.22 1.39 1.25 1.33 1.32 1.23 1.08 0.91 0.91 0.69 0.73 0.90 0.81 0.80 1.07 1.61 1.82 1.88 1.83 1.58
0.60 0.49 0.47 0.45 0.45 0.46 0.53 0.57 0.56 0.57 0.61 0.65 0.71 0.78 0.86 0.98 0.94 0.92 0.86 0.93 0.90 1.05 1.24 1.48 1.44 1.66 1.70 1.55 1.34 1.19 1.16 1.10 0.95 1.06 1.16 1.12 1.13 1.30 1.89 2.24 2.20 2.06 1.81
0.69 0.60 0.64 0.65 0.75 0.86 0.86 0.91 1.00 1.07 1.09 1.10 1.09 1.12 1.18 1.32 1.47 1.36 1.18 1.21 1.13 1.24 1.52 1.73 1.70 1.99 1.88 1.80 1.47 1.36 1.24 1.14 1.08 1.21 1.30 1.36 1.37 1.46 1.75 2.15 2.38 2.31 2.07
0.64 0.66 0.82 1.07 1.25 1.34 1.38 1.45 1.45 1.50 1.45 1.41 1.59 1.73 1.79 1.79 1.81 1.67 1.46 1.37 1.46 1.60 1.79 1.83 1.88 2.07 1.89 1.82 1.62 1.49 1.29 1.13 1.09 1.24 1.38 1.50 1.37 1.37 1.60 1.92 2.22 2.22 2.07
0.76 0.87 1.10 1.38 1.68 1.85 1.88 1.90 1.94 1.89 1.81 1.91 2.01 2.07 2.07 1.99 1.93 1.97 1.71 1.52 1.77 1.90 2.02 2.10 2.07 2.07 2.02 1.93 1.77 1.47 1.32 1.17 1.02 1.11 1.18 1.30 1.36 1.11 1.30 1.75 1.86 1.78 1.86
1.20 1.43 1.67 1.74 1.84 2.03 2.24 2.36 2.22 2.13 2.03 2.00 2.02 2.01 1.99 1.97 1.98 2.18 1.95 1.88 2.04 2.21 2.14 2.01 2.23 2.30 2.13 2.02 1.76 1.58 1.24 1.09 1.02 1.00 1.03 1.05 1.17 1.14 1.06 1.20 1.54 1.50 1.68
1.69 1.95 1.99 1.97 2.18 2.66 2.99 2.90 2.62 2.28 2.09 2.00 1.91 1.84 1.88 2.01 2.10 2.33 2.10 2.11 2.28 2.37 2.36 2.36 2.40 2.36 2.21 2.19 1.89 1.59 1.28 1.02 0.98 0.94 0.88 0.90 0.90 0.80 0.80 0.86 1.02 0.99 1.16
1.97 2.10 2.20 2.48 2.87 3.07 3.05 3.03 2.98 2.66 2.37 2.05 1.82 1.81 1.90 1.93 2.08 2.32 2.06 2.33 2.46 2.40 2.43 2.44 2.55 2.41 2.24 2.37 2.19 1.68 1.22 0.94 0.80 0.71 0.72 0.75 0.69 0.74 0.84 0.99 1.11 1.16 1.08
2.04 2.27 2.54 2.83 3.14 3.03 3.17 3.37 3.30 3.06 2.48 2.11 1.92 1.89 1.95 1.99 2.04 2.17 2.41 2.46 2.53 2.50 2.49 2.44 2.44 2.23 2.02 2.26 2.22 1.95 1.40 1.04 0.79 0.67 0.75 0.71 0.72 0.80 0.81 0.86 1.04 1.22 1.18
2.20 2.56 2.81 2.99 3.05 2.99 3.15 3.27 2.99 2.75 2.32 2.19 2.17 2.06 2.01 2.11 2.16 2.29 2.44 2.51 2.42 2.34 2.34 2.42 2.32 2.17 1.98 2.02 2.16 2.09 1.62 1.16 0.86 0.68 0.72 0.76 0.91 0.94 0.83 0.78 0.74 0.74 0.81
2.28 2.64 2.96 2.95 2.92 2.88 2.99 3.05 2.88 2.60 2.32 2.22 2.24 2.03 1.89 1.87 1.93 2.04 2.11 2.26 2.31 2.30 2.24 2.20 2.15 2.14 2.03 1.89 2.04 2.03 1.85 1.55 1.29 0.86 0.66 0.67 0.83 0.87 0.84 0.74 0.69 0.68 0.73
2.02 2.32 2.59 2.78 2.82 2.75 2.72 2.68 2.64 2.44 2.19 2.06 2.00 1.88 1.83 1.86 1.79 1.78 1.88 2.06 2.12 2.04 2.01 2.14 2.26 2.21 2.04 1.87 1.92 1.95 2.01 1.90 1.61 1.27 0.87 0.77 0.75 0.68 0.75 0.73 0.67 0.67 0.75
1.83 2.10 2.27 2.40 2.44 2.40 2.32 2.28 2.29 2.22 2.17 2.02 1.87 1.88 1.92 1.85 1.73 1.67 1.69 1.80 1.86 1.84 1.80 1.83 1.92 1.94 1.90 1.94 1.94 1.93 1.96 1.89 1.76 1.65 1.27 1.03 0.88 0.63 0.63 0.64 0.66 0.66 0.71

GEFSSE_prec_meanprecacc_114.txt.gz
Total_Precipitation_Accumulation
0.00 0.01 0.05 0.03 0.02 0.02 0.02 0.04 0.06 0.06 0.07 0.09 0.11 0.10 0.07 0.05 0.04 0.04 0.04 0.04 0.04 0.04 0.05 0.05 0.08 0.09 0.11 0.12 0.11 0.08 0.08 0.08 0.08 0.10 0.09 0.10 0.13 0.18 0.21 0.20 0.29 0.21 0.15
0.00 0.01 0.04 0.03 0.02 0.02 0.03 0.04 0.05 0.05 0.05 0.06 0.09 0.10 0.06 0.04 0.03 0.03 0.05 0.07 0.06 0.05 0.05 0.06 0.06 0.07 0.09 0.10 0.08 0.05 0.05 0.05 0.06 0.07 0.09 0.10 0.13 0.20 0.24 0.20 0.29 0.20 0.12
0.00 0.01 0.03 0.03 0.02 0.02 0.02 0.04 0.06 0.05 0.04 0.04 0.05 0.06 0.04 0.04 0.03 0.03 0.04 0.10 0.12 0.10 0.07 0.04 0.04 0.05 0.05 0.05 0.04 0.03 0.03 0.04 0.06 0.08 0.13 0.17 0.10 0.19 0.26 0.21 0.16 0.10 0.10
0.00 0.00 0.02 0.02 0.02 0.02 0.02 0.02 0.04 0.05 0.06 0.07 0.08 0.06 0.06 0.05 0.05 0.04 0.05 0.07 0.10 0.09 0.08 0.04 0.03 0.03 0.03 0.02 0.02 0.03 0.03 0.05 0.07 0.09 0.25 0.36 0.19 0.18 0.23 0.20 0.16 0.12 0.11
0.00 0.00 0.02 0.03 0.02 0.02 0.02 0.02 0.04 0.05 0.06 0.09 0.09 0.08 0.08 0.08 0.07 0.06 0.06 0.07 0.08 0.05 0.05 0.05 0.04 0.03 0.02 0.01 0.02 0.03 0.03 0.05 0.06 0.10 0.17 0.28 0.34 0.23 0.21 0.23 0.22 0.22 0.17
0.00 0.00 0.02 0.03 0.02 0.02 0.02 0.02 0.03 0.04 0.05 0.07 0.07 0.06 0.07 0.07 0.08 0.08 0.07 0.09 0.11 0.10 0.07 0.08 0.07 0.08 0.06 0.03 0.03 0.02 0.03 0.05 0.06 0.08 0.11 0.14 0.30 0.28 0.24 0.33 0.37 0.36 0.30
0.01 0.01 0.03 0.03 0.03 0.02 0.02 0.03 0.03 0.04 0.05 0.05 0.05 0.04 0.04 0.05 0.06 0.07 0.07 0.08 0.09 0.11 0.11 0.11 0.11 0.09 0.10 0.09 0.05 0.04 0.04 0.07 0.07 0.08 0.08 0.15 0.26 0.20 0.29 0.51 0.67 0.62 0.49
0.01 0.01 0.03 0.04 0.04 0.03 0.03 0.03 0.03 0.04 0.04 0.04 0.04 0.03 0.03 0.03 0.04 0.06 0.07 0.06 0.05 0.06 0.07 0.10 0.14 0.12 0.10 0.13 0.11 0.08 0.08 0.10 0.09 0.09 0.10 0.15 0.18 0.20 0.35 0.61 0.78 0.75 0.64
0.01 0.02 0.04 0.05 0.05 0.05 0.04 0.04 0.04 0.04 0.04 0.04 0.04 0.04 0.03 0.03 0.04 0.04 0.05 0.04 0.04 0.04 0.05 0.07 0.08 0.09 0.09 0.12 0.16 0.15 0.13 0.14 0.16 0.21 0.15 0.23 0.29 0.36 0.57 0.77 0.89 0.87 0.80
0.05 0.04 0.05 0.06 0.07 0.06 0.06 0.06 0.07 0.07 0.07 0.06 0.06 0.07 0.06 0.05 0.05 0.06 0.06 0.06 0.06 0.07 0.07 0.09 0.10 0.11 0.13 0.13 0.15 0.22 0.27 0.22 0.11 0.14 0.28 0.24 0.27 0.53 0.84 0.98 1.08 1.08 1.03
0.12 0.11 0.09 0.08 0.09 0.08 0.08 0.08 0.10 0.11 0.11 0.11 0.12 0.12 0.11 0.09 0.10 0.14 0.13 0.15 0.17 0.21 0.23 0.26 0.29 0.30 0.30 0.22 0.24 0.39 0.40 0.20 0.14 0.18 0.26 0.22 0.33 0.70 1.06 1.20 1.23 1.26 1.22
0.18 0.16 0.13 0.11 0.11 0.10 0.11 0.13 0.17 0.17 0.19 0.19 0.25 0.26 0.24 0.25 0.23 0.17 0.20 0.30 0.46 0.59 0.63 0.76 0.88 0.73 0.57 0.56 1.00 1.04 0.37 0.22 0.30 0.25 0.28 0.27 0.47 0.90 1.24 1.43 1.46 1.39 1.34
0.28 0.23 0.20 0.15 0.15 0.17 0.20 0.22 0.26 0.26 0.32 0.35 0.41 0.46 0.47 0.41 0.33 0.28 0.33 0.50 0.73 0.82 0.84 1.18 1.35 0.97 1.03 1.26 1.35 1.17 0.55 0.44 0.39 0.33 0.41 0.52 0.69 1.13 1.58 1.74 1.78 1.64 1.52
0.46 0.40 0.37 0.34 0.34 0.35 0.36 0.36 0.36 0.38 0.44 0.52 0.57 0.63 0.71 0.74 0.62 0.59 0.65 0.73 0.88 0.95 1.18 1.34 1.52 1.37 1.46 1.43 1.31 1.14 0.95 0.95 0.73 0.76 0.93 0.84 0.84 1.14 1.74 1.98 2.02 1.92 1.64
0.65 0.54 0.53 0.51 0.51 0.53 0.63 0.72 0.69 0.68 0.74 0.79 0.87 0.93 1.00 1.12 1.07 1.07 0.99 1.03 0.98 1.13 1.32 1.60 1.58 1.82 1.87 1.69 1.45 1.29 1.24 1.18 1.01 1.09 1.19 1.16 1.19 1.37 1.99 2.40 2.38 2.20 1.91
0.77 0.68 0.71 0.74 0.85 0.99 1.01 1.07 1.17 1.22 1.23 1.25 1.26 1.29 1.34 1.49 1.68 1.60 1.37 1.33 1.22 1.32 1.61 1.85 1.86 2.16 2.05 1.98 1.63 1.50 1.35 1.24 1.17 1.27 1.34 1.40 1.43 1.53 1.84 2.28 2.54 2.48 2.22
0.73 0.76 0.96 1.22 1.38 1.50 1.55 1.63 1.66 1.70 1.65 1.64 1.81 1.92 1.97 1.97 2.00 1.86 1.66 1.52 1.61 1.75 1.91 1.95 2.03 2.26 2.05 1.99 1.79 1.66 1.44 1.24 1.19 1.33 1.44 1.55 1.42 1.43 1.68 2.02 2.36 2.37 2.24
0.84 0.97 1.21 1.51 1.80 1.98 2.04 2.10 2.13 2.04 1.96 2.10 2.15 2.20 2.23 2.15 2.08 2.11 1.84 1.66 1.90 2.03 2.14 2.22 2.22 2.24 2.18 2.10 1.94 1.65 1.48 1.30 1.13 1.22 1.27 1.37 1.43 1.16 1.37 1.83 1.97 1.91 2.00
1.27 1.53 1.79 1.85 1.95 2.13 2.34 2.46 2.30 2.21 2.12 2.11 2.10 2.09 2.07 2.05 2.07 2.28 2.05 2.00 2.16 2.34 2.26 2.10 2.34 2.42 2.27 2.18 1.94 1.76 1.40 1.22 1.14 1.10 1.12 1.13 1.25 1.20 1.12 1.28 1.66 1.62 1.82
1.73 2.00 2.05 2.04 2.25 2.73 3.05 2.96 2.68 2.32 2.13 2.04 1.96 1.89 1.93 2.06 2.15 2.39 2.17 2.19 2.36 2.47 2.45 2.44 2.48 2.45 2.31 2.30 2.00 1.72 1.41 1.12 1.08 1.02 0.95 0.98 0.98 0.87 0.86 0.93 1.14 1.10 1.28
1.99 2.12 2.23 2.52 2.91 3.10 3.07 3.05 3.01 2.69 2.40 2.08 1.85 1.85 1.93 1.96 2.11 2.37 2.11 2.38 2.51 2.45 2.49 2.50 2.61 2.47 2.30 2.46 2.28 1.76 1.31 1.05 0.89 0.79 0.80 0.82 0.76 0.81 0.92 1.07 1.21 1.28 1.18
2.04 2.28 2.56 2.85 3.15 3.04 3.18 3.38 3.31 3.07 2.49 2.13 1.94 1.90 1.96 2.00 2.07 2.21 2.46 2.51 2.57 2.54 2.53 2.47 2.48 2.27 2.06 2.32 2.30 2.04 1.48 1.13 0.86 0.73 0.82 0.77 0.78 0.88 0.89 0.95 1.13 1.33 1.29
2.20 2.56 2.81 3.00 3.05 3.00 3.15 3.28 3.00 2.76 2.33 2.20 2.18 2.07 2.03 2.14 2.19 2.32 2.49 2.56 2.47 2.38 2.38 2.45 2.34 2.20 2.01 2.07 2.25 2.20 1.73 1.28 0.95 0.75 0.78 0.81 0.97 1.01 0.90 0.86 0.83 0.85 0.92
2.28 2.65 2.97 2.96 2.93 2.88 2.99 3.06 2.90 2.61 2.33 2.22 2.24 2.04 1.90 1.89 1.95 2.06 2.13 2.28 2.33 2.31 2.26 2.22 2.18 2.17 2.07 1.93 2.11 2.14 1.96 1.67 1.41 0.97 0.74 0.75 0.90 0.95 0.90 0.81 0.77 0.77 0.85
2.02 2.33 2.59 2.78 2.82 2.75 2.72 2.68 2.65 2.45 2.20 2.06 2.00 1.88 1.84 1.86 1.79 1.79 1.89 2.07 2.13 2.06 2.03 2.16 2.30 2.26 2.08 1.92 1.99 2.05 2.15 2.03 1.72 1.38 0.97 0.86 0.84 0.76 0.83 0.82 0.75 0.76 0.85
1.83 2.10 2.27 2.40 2.45 2.40 2.32 2.28 2.30 2.23 2.18 2.03 1.87 1.88 1.92 1.85 1.73 1.67 1.70 1.81 1.88 1.86 1.83 1.87 1.96 1.98 1.94 1.99 2.01 2.01 2.07 2.03 1.90 1.78 1.37 1.12 0.97 0.72 0.72 0.74 0.75 0.75 0.79

GEFSSE_prec_meanprecacc_120.txt.gz
Total_Precipitation_Accumulation
0.00 0.01 0.05 0.03 0.02 0.02 0.03 0.05 0.08 0.08 0.08 0.09 0.11 0.10 0.08 0.05 0.04 0.04 0.05 0.05 0.06 0.06 0.07 0.08 0.11 0.12 0.14 0.14 0.14 0.11 0.10 0.10 0.10 0.11 0.11 0.12 0.15 0.23 0.26 0.27 0.37 0.25 0.17
0.00 0.01 0.04 0.03 0.02 0.02 0.04 0.05 0.07 0.07 0.07 0.08 0.10 0.11 0.07 0.05 0.04 0.03 0.06 0.08 0.06 0.06 0.07 0.08 0.08 0.09 0.12 0.12 0.10 0.07 0.06 0.07 0.08 0.09 0.10 0.11 0.15 0.24 0.31 0.29 0.40 0.23 0.14
0.00 0.01 0.03 0.03 0.02 0.02 0.03 0.05 0.08 0.08 0.06 0.06 0.07 0.07 0.05 0.05 0.04 0.04 0.05 0.11 0.13 0.11 0.08 0.06 0.06 0.07 0.08 0.08 0.06 0.04 0.04 0.05 0.08 0.12 0.20 0.23 0.12 0.22 0.32 0.30 0.23 0.12 0.13
0.00 0.00 0.02 0.03 0.02 0.02 0.02 0.03 0.06 0.07 0.08 0.09 0.10 0.08 0.07 0.07 0.06 0.05 0.06 0.09 0.12 0.10 0.08 0.04 0.04 0.04 0.05 0.03 0.03 0.04 0.04 0.06 0.10 0.18 0.46 0.50 0.23 0.19 0.28 0.27 0.20 0.14 0.13
0.00 0.00 0.02 0.03 0.02 0.02 0.02 0.03 0.05 0.07 0.08 0.11 0.11 0.10 0.10 0.08 0.07 0.07 0.07 0.08 0.09 0.06 0.06 0.06 0.06 0.05 0.04 0.03 0.03 0.03 0.04 0.06 0.11 0.25 0.39 0.46 0.43 0.25 0.24 0.27 0.25 0.26 0.20
0.00 0.01 0.03 0.03 0.02 0.02 0.02 0.03 0.04 0.06 0.07 0.09 0.08 0.08 0.08 0.08 0.09 0.09 0.08 0.10 0.12 0.11 0.08 0.09 0.09 0.09 0.07 0.04 0.03 0.03 0.04 0.07 0.12 0.20 0.24 0.29 0.38 0.30 0.27 0.38 0.40 0.39 0.32
0.01 0.01 0.03 0.04 0.03 0.03 0.03 0.03 0.04 0.05 0.06 0.07 0.07 0.06 0.06 0.07 0.07 0.08 0.08 0.09 0.10 0.13 0.12 0.13 0.12 0.10 0.10 0.09 0.06 0.05 0.05 0.09 0.16 0.18 0.17 0.32 0.38 0.21 0.31 0.55 0.70 0.65 0.51
0.01 0.02 0.04 0.05 0.04 0.04 0.04 0.04 0.04 0.04 0.05 0.06 0.06 0.05 0.04 0.04 0.05 0.07 0.09 0.08 0.07 0.08 0.09 0.12 0.15 0.13 0.10 0.14 0.12 0.08 0.08 0.11 0.14 0.15 0.17 0.28 0.26 0.21 0.36 0.64 0.81 0.78 0.66
0.01 0.02 0.05 0.06 0.06 0.06 0.05 0.05 0.05 0.05 0.06 0.06 0.05 0.05 0.04 0.04 0.05 0.06 0.07 0.07 0.07 0.06 0.07 0.08 0.10 0.11 0.10 0.13 0.16 0.15 0.13 0.15 0.21 0.23 0.21 0.33 0.31 0.36 0.58 0.80 0.92 0.90 0.83
0.05 0.05 0.06 0.07 0.09 0.09 0.08 0.09 0.09 0.09 0.09 0.09 0.08 0.08 0.08 0.07 0.06 0.08 0.09 0.09 0.09 0.09 0.08 0.10 0.11 0.12 0.13 0.14 0.15 0.22 0.27 0.23 0.13 0.15 0.32 0.29 0.28 0.54 0.85 1.00 1.10 1.11 1.05
0.13 0.12 0.12 0.15 0.13 0.12 0.13 0.13 0.13 0.14 0.15 0.14 0.15 0.15 0.14 0.12 0.16 0.21 0.17 0.19 0.21 0.24 0.25 0.27 0.31 0.31 0.31 0.23 0.25 0.39 0.41 0.20 0.16 0.20 0.31 0.26 0.34 0.71 1.07 1.23 1.26 1.28 1.24
0.22 0.19 0.16 0.17 0.15 0.14 0.16 0.21 0.24 0.23 0.26 0.26 0.33 0.34 0.32 0.35 0.34 0.26 0.30 0.38 0.52 0.63 0.66 0.79 0.91 0.74 0.58 0.58 1.04 1.05 0.38 0.23 0.31 0.27 0.33 0.31 0.50 0.92 1.26 1.47 1.49 1.42 1.37
0.32 0.29 0.25 0.21 0.21 0.23 0.27 0.31 0.37 0.37 0.45 0.49 0.57 0.63 0.63 0.57 0.46 0.39 0.47 0.64 0.82 0.89 0.90 1.27 1.41 1.03 1.09 1.32 1.46 1.23 0.57 0.45 0.41 0.36 0.48 0.58 0.72 1.16 1.62 1.78 1.81 1.67 1.55
0.51 0.45 0.42 0.40 0.41 0.42 0.43 0.46 0.48 0.51 0.59 0.68 0.76 0.82 0.90 0.92 0.80 0.74 0.81 0.91 1.05 1.11 1.34 1.51 1.69 1.53 1.59 1.51 1.39 1.20 0.99 0.99 0.77 0.81 1.04 0.93 0.88 1.17 1.79 2.03 2.07 1.96 1.67
0.75 0.62 0.59 0.58 0.59 0.62 0.73 0.84 0.82 0.82 0.89 0.94 1.05 1.13 1.20 1.31 1.27 1.26 1.19 1.24 1.16 1.31 1.50 1.79 1.77 2.03 2.07 1.85 1.57 1.38 1.30 1.22 1.07 1.16 1.31 1.29 1.25 1.40 2.03 2.44 2.42 2.25 1.96
0.87 0.77 0.80 0.82 0.93 1.07 1.12 1.19 1.31 1.36 1.37 1.40 1.42 1.48 1.57 1.72 1.87 1.81 1.61 1.56 1.44 1.51 1.79 2.05 2.07 2.41 2.26 2.14 1.75 1.62 1.43 1.30 1.20 1.30 1.44 1.55 1.51 1.58 1.87 2.32 2.58 2.54 2.29
0.85 0.89 1.09 1.33 1.47 1.60 1.70 1.82 1.83 1.86 1.80 1.81 1.98 2.07 2.12 2.12 2.14 2.01 1.85 1.75 1.84 1.96 2.10 2.12 2.21 2.46 2.20 2.12 1.91 1.78 1.55 1.34 1.26 1.38 1.49 1.66 1.53 1.49 1.71 2.06 2.41 2.44 2.32
0.93 1.06 1.29 1.59 1.90 2.08 2.16 2.28 2.31 2.26 2.18 2.27 2.30 2.34 2.37 2.30 2.21 2.24 1.99 1.82 2.08 2.20 2.31 2.39 2.39 2.41 2.33 2.24 2.05 1.75 1.59 1.42 1.25 1.33 1.35 1.44 1.51 1.25 1.44 1.89 2.01 1.95 2.06
1.30 1.55 1.81 1.90 2.03 2.20 2.44 2.59 2.42 2.33 2.24 2.22 2.20 2.20 2.18 2.18 2.20 2.42 2.19 2.16 2.34 2.50 2.41 2.24 2.53 2.61 2.46 2.37 2.10 1.91 1.53 1.34 1.24 1.19 1.20 1.21 1.34 1.31 1.24 1.37 1.72 1.66 1.87
1.75 2.02 2.07 2.09 2.37 2.78 3.09 3.03 2.76 2.42 2.23 2.13 2.05 1.99 2.03 2.16 2.23 2.47 2.25 2.29 2.48 2.58 2.58 2.57 2.63 2.62 2.48 2.50 2.20 1.92 1.59 1.25 1.19 1.11 1.02 1.07 1.08 0.95 0.96 1.05 1.27 1.16 1.32
2.00 2.14 2.25 2.54 2.93 3.13 3.10 3.09 3.04 2.73 2.45 2.13 1.90 1.90 1.98 2.02 2.17 2.42 2.16 2.44 2.58 2.55 2.60 2.62 2.73 2.59 2.44 2.63 2.47 1.95 1.49 1.19 1.01 0.87 0.87 0.90 0.83 0.89 1.02 1.19 1.36 1.39 1.24
2.05 2.29 2.57 2.87 3.18 3.07 3.20 3.40 3.34 3.09 2.51 2.16 1.96 1.93 1.98 2.02 2.09 2.24 2.50 2.56 2.63 2.61 2.61 2.58 2.59 2.37 2.17 2.49 2.47 2.23 1.65 1.28 0.98 0.81 0.90 0.84 0.86 1.00 1.00 1.07 1.26 1.47 1.40
2.21 2.59 2.84 3.03 3.09 3.03 3.17 3.30 3.02 2.79 2.35 2.22 2.21 2.10 2.05 2.17 2.21 2.34 2.51 2.59 2.51 2.42 2.43 2.52 2.42 2.28 2.09 2.18 2.39 2.37 1.88 1.41 1.08 0.88 0.89 0.90 1.08 1.14 1.02 0.98 0.95 0.96 1.03
2.29 2.65 2.99 2.98 2.95 2.90 3.00 3.08 2.92 2.64 2.36 2.25 2.28 2.07 1.93 1.91 1.97 2.08 2.16 2.31 2.36 2.34 2.30 2.27 2.24 2.24 2.14 2.00 2.21 2.25 2.08 1.80 1.53 1.07 0.85 0.86 1.04 1.09 1.02 0.92 0.90 0.94 1.00
2.02 2.33 2.61 2.80 2.83 2.76 2.72 2.69 2.66 2.46 2.21 2.08 2.02 1.90 1.85 1.87 1.80 1.80 1.91 2.09 2.15 2.08 2.06 2.20 2.35 2.31 2.14 1.98 2.06 2.15 2.26 2.15 1.82 1.47 1.05 0.96 0.97 0.88 0.95 0.94 0.89 0.93 1.05
1.83 2.10 2.27 2.40 2.45 2.41 2.32 2.28 2.30 2.24 2.18 2.03 1.88 1.89 1.92 1.86 1.73 1.68 1.71 1.82 1.90 1.88 1.86 1.90 2.00 2.03 2.00 2.06 2.08 2.09 2.17 2.13 1.99 1.87 1.46 1.22 1.08 0.81 0.85 0.88 0.90 0.90 0.97

GEFSSE_prec_meanprecacc_126.txt.gz
Total_Precipitation_Accumulation
0.04 0.02 0.06 0.04 0.02 0.02 0.04 0.05 0.08 0.08 0.08 0.10 0.12 0.11 0.08 0.06 0.05 0.06 0.09 0.11 0.09 0.09 0.09 0.11 0.14 0.14 0.16 0.17 0.17 0.16 0.14 0.12 0.14 0.15 0.14 0.16 0.21 0.29 0.33 0.33 0.41 0.29 0.21
0.04 0.02 0.05 0.03 0.02 0.02 0.04 0.06 0.07 0.07 0.07 0.09 0.11 0.11 0.08 0.06 0.05 0.05 0.08 0.10 0.08 0.08 0.08 0.10 0.09 0.11 0.14 0.15 0.11 0.09 0.09 0.09 0.11 0.14 0.13 0.14 0.18 0.29 0.36 0.33 0.42 0.25 0.16
0.02 0.01 0.03 0.03 0.03 0.03 0.03 0.06 0.08 0.08 0.07 0.06 0.07 0.08 0.07 0.06 0.06 0.06 0.07 0.12 0.15 0.13 0.09 0.07 0.07 0.08 0.09 0.09 0.07 0.05 0.06 0.07 0.11 0.17 0.23 0.25 0.15 0.28 0.39 0.35 0.25 0.14 0.15
0.02 0.01 0.02 0.03 0.02 0.03 0.03 0.04 0.06 0.08 0.08 0.10 0.11 0.09 0.08 0.08 0.07 0.07 0.07 0.10 0.13 0.11 0.09 0.05 0.05 0.05 0.06 0.04 0.04 0.04 0.06 0.08 0.14 0.24 0.51 0.53 0.24 0.24 0.33 0.29 0.22 0.16 0.15
0.02 0.01 0.03 0.03 0.02 0.02 0.03 0.04 0.06 0.08 0.09 0.12 0.12 0.11 0.11 0.10 0.08 0.07 0.07 0.09 0.10 0.07 0.06 0.07 0.07 0.05 0.04 0.03 0.03 0.05 0.07 0.10 0.17 0.32 0.45 0.50 0.45 0.29 0.27 0.29 0.26 0.27 0.21
0.01 0.01 0.03 0.03 0.03 0.03 0.03 0.04 0.05 0.07 0.08 0.10 0.10 0.09 0.09 0.09 0.10 0.10 0.09 0.11 0.13 0.12 0.09 0.10 0.10 0.10 0.07 0.04 0.04 0.05 0.07 0.12 0.19 0.26 0.28 0.31 0.40 0.33 0.29 0.39 0.41 0.39 0.32
0.02 0.02 0.04 0.05 0.04 0.03 0.03 0.04 0.05 0.06 0.07 0.08 0.08 0.07 0.07 0.08 0.09 0.09 0.09 0.09 0.11 0.14 0.13 0.13 0.13 0.10 0.10 0.09 0.06 0.06 0.07 0.14 0.23 0.30 0.23 0.34 0.40 0.25 0.34 0.57 0.71 0.65 0.52
0.02 0.03 0.05 0.06 0.05 0.05 0.04 0.05 0.05 0.06 0.06 0.07 0.07 0.05 0.05 0.05 0.06 0.08 0.10 0.08 0.08 0.08 0.10 0.12 0.16 0.13 0.11 0.14 0.12 0.09 0.10 0.14 0.20 0.27 0.22 0.29 0.28 0.25 0.40 0.66 0.82 0.78 0.66
0.04 0.04 0.06 0.07 0.08 0.08 0.07 0.07 0.07 0.07 0.07 0.07 0.06 0.06 0.05 0.05 0.05 0.07 0.08 0.08 0.07 0.07 0.08 0.09 0.10 0.11 0.10 0.13 0.16 0.16 0.15 0.19 0.25 0.31 0.26 0.36 0.35 0.39 0.61 0.81 0.92 0.90 0.83
0.09 0.07 0.08 0.11 0.12 0.12 0.11 0.12 0.12 0.11 0.10 0.10 0.10 0.10 0.09 0.08 0.08 0.10 0.11 0.10 0.11 0.10 0.10 0.11 0.12 0.13 0.14 0.14 0.15 0.23 0.29 0.26 0.15 0.23 0.39 0.35 0.34 0.57 0.87 1.01 1.11 1.11 1.06
0.24 0.16 0.15 0.21 0.20 0.17 0.17 0.17 0.17 0.17 0.17 0.17 0.18 0.18 0.16 0.15 0.18 0.24 0.22 0.25 0.25 0.28 0.28 0.30 0.33 0.33 0.32 0.23 0.25 0.40 0.42 0.22 0.18 0.27 0.39 0.33 0.41 0.75 1.09 1.23 1.27 1.28 1.25
0.44 0.31 0.23 0.23 0.21 0.20 0.19 0.23 0.26 0.25 0.28 0.28 0.36 0.38 0.37 0.39 0.37 0.29 0.36 0.48 0.61 0.70 0.71 0.83 0.96 0.78 0.60 0.60 1.05 1.07 0.39 0.24 0.34 0.34 0.43 0.43 0.60 0.99 1.29 1.48 1.49 1.42 1.38
0.69 0.51 0.39 0.32 0.31 0.31 0.34 0.36 0.42 0.41 0.49 0.53 0.62 0.69 0.70 0.62 0.50 0.44 0.53 0.73 0.91 0.98 0.97 1.33 1.46 1.06 1.12 1.34 1.48 1.26 0.59 0.47 0.44 0.43 0.63 0.79 0.86 1.26 1.68 1.80 1.82 1.68 1.55
0.94 0.78 0.67 0.57 0.56 0.56 0.57 0.56 0.57 0.59 0.66 0.74 0.82 0.88 0.97 0.98 0.85 0.80 0.88 1.01 1.18 1.23 1.44 1.61 1.79 1.61 1.65 1.57 1.44 1.26 1.05 1.04 0.85 0.93 1.27 1.21 1.06 1.28 1.88 2.08 2.09 1.97 1.68
1.08 0.98 0.93 0.81 0.79 0.80 0.88 0.95 0.91 0.92 0.96 1.01 1.11 1.18 1.27 1.39 1.35 1.34 1.28 1.34 1.29 1.46 1.65 1.93 1.92 2.16 2.17 1.93 1.64 1.46 1.40 1.33 1.19 1.35 1.56 1.65 1.52 1.55 2.15 2.52 2.47 2.28 1.97
1.11 1.03 1.01 1.03 1.14 1.21 1.23 1.28 1.38 1.45 1.46 1.48 1.49 1.53 1.63 1.79 1.97 1.90 1.71 1.67 1.54 1.62 1.89 2.14 2.17 2.52 2.38 2.25 1.84 1.72 1.56 1.40 1.32 1.45 1.59 1.77 1.74 1.75 2.01 2.42 2.66 2.59 2.31
1.00 1.02 1.19 1.43 1.58 1.70 1.79 1.88 1.88 1.93 1.89 1.91 2.05 2.13 2.17 2.18 2.22 2.09 1.94 1.85 1.94 2.06 2.19 2.19 2.29 2.57 2.31 2.21 1.99 1.86 1.67 1.47 1.37 1.49 1.64 1.80 1.69 1.67 1.89 2.18 2.51 2.51 2.38
1.01 1.14 1.37 1.65 1.96 2.15 2.22 2.32 2.35 2.29 2.22 2.31 2.35 2.40 2.42 2.34 2.26 2.30 2.07 1.92 2.18 2.30 2.39 2.47 2.47 2.50 2.43 2.33 2.14 1.81 1.66 1.56 1.39 1.45 1.49 1.56 1.62 1.35 1.57 2.02 2.12 2.05 2.14
1.37 1.61 1.87 1.95 2.07 2.24 2.47 2.61 2.44 2.35 2.25 2.24 2.22 2.24 2.22 2.21 2.24 2.47 2.25 2.24 2.42 2.58 2.48 2.30 2.59 2.68 2.53 2.46 2.19 1.99 1.61 1.42 1.35 1.31 1.34 1.33 1.44 1.41 1.34 1.47 1.83 1.75 1.96
1.83 2.11 2.15 2.15 2.41 2.82 3.12 3.05 2.78 2.43 2.24 2.14 2.06 2.01 2.05 2.18 2.26 2.50 2.29 2.34 2.54 2.65 2.66 2.64 2.70 2.69 2.55 2.57 2.28 2.01 1.68 1.34 1.27 1.20 1.12 1.17 1.19 1.06 1.08 1.16 1.37 1.23 1.41
2.04 2.19 2.30 2.59 2.98 3.16 3.12 3.10 3.06 2.74 2.46 2.14 1.91 1.91 2.00 2.04 2.20 2.45 2.18 2.47 2.62 2.60 2.66 2.69 2.81 2.68 2.52 2.71 2.55 2.03 1.56 1.27 1.08 0.95 0.95 1.00 0.93 0.99 1.12 1.30 1.46 1.48 1.31
2.08 2.30 2.58 2.89 3.20 3.11 3.24 3.41 3.34 3.10 2.52 2.17 1.97 1.94 1.99 2.04 2.11 2.28 2.53 2.57 2.64 2.65 2.65 2.62 2.63 2.43 2.25 2.59 2.57 2.31 1.73 1.36 1.04 0.88 0.99 0.93 0.94 1.08 1.09 1.14 1.35 1.57 1.48
2.22 2.59 2.85 3.04 3.11 3.08 3.21 3.30 3.03 2.79 2.36 2.22 2.21 2.11 2.05 2.17 2.22 2.35 2.52 2.59 2.51 2.43 2.45 2.55 2.45 2.30 2.12 2.25 2.49 2.45 1.94 1.47 1.14 0.93 0.95 0.97 1.18 1.24 1.10 1.05 1.02 1.06 1.14
2.29 2.66 2.99 2.99 2.96 2.91 3.01 3.08 2.92 2.64 2.36 2.26 2.28 2.08 1.93 1.91 1.98 2.09 2.16 2.31 2.37 2.36 2.32 2.29 2.26 2.27 2.16 2.03 2.26 2.32 2.14 1.86 1.58 1.12 0.90 0.94 1.15 1.20 1.11 1.00 0.98 1.03 1.11
2.03 2.33 2.61 2.80 2.84 2.76 2.72 2.69 2.66 2.46 2.21 2.08 2.02 1.90 1.85 1.88 1.80 1.81 1.92 2.10 2.16 2.08 2.07 2.21 2.37 2.33 2.16 1.99 2.08 2.18 2.30 2.21 1.89 1.52 1.09 1.01 1.03 0.96 1.05 1.04 0.99 1.04 1.16
1.84 2.10 2.27 2.40 2.45 2.41 2.32 2.28 2.30 2.24 2.18 2.03 1.88 1.89 1.92 1.86 1.74 1.68 1.71 1.82 1.90 1.88 1.86 1.90 2.00 2.03 2.00 2.07 2.09 2.10 2.20 2.18 2.04 1.91 1.49 1.24 1.11 0.85 0.91 0.96 1.00 1.02 1.10